Observation data for Happy on 11/14/2019      Previous  Date       Current Mesonet Observations  Soil Data  Daily Summary Page  Observations in Plain Language
KHA2 140600Z 35010KT 02/M06 A3014 RMK A01 T00191055  RH  058%=      5-min Rain = 0
KHA2 140601Z 35010KT 02/M06 A3014 RMK A01 T00191055  RH  058%=      5-min Rain = 0
KHA2 140602Z 35009KT 02/M06 A3014 RMK A01 T00201055  RH  058%=      5-min Rain = 0
KHA2 140603Z 35009KT 02/M06 A3014 RMK A01 T00191055  RH  058%=      5-min Rain = 0
KHA2 140604Z 35009KT 02/M06 A3014 RMK A01 T00191056  RH  058%=      5-min Rain = 0
KHA2 140605Z 35010KT 02/M06 A3014 RMK A01 T00191055  RH  058%=      5-min Rain = 0
KHA2 140606Z 35010KT 02/M06 A3014 RMK A01 T00181056  RH  058%=      5-min Rain = 0
KHA2 140607Z 35010KT 02/M06 A3014 RMK A01 T00181056  RH  058%=      5-min Rain = 0
KHA2 140608Z 35010KT 02/M06 A3014 RMK A01 T00181055  RH  058%=      5-min Rain = 0
KHA2 140609Z 35010KT 02/M06 A3014 RMK A01 T00181055  RH  058%=      5-min Rain = 0
KHA2 140610Z 35011KT 02/M05 A3014 RMK A01 T00181054  RH  059%=      5-min Rain = 0
KHA2 140611Z 35010KT 02/M05 A3014 RMK A01 T00181054  RH  059%=      5-min Rain = 0
KHA2 140612Z 35011KT 02/M05 A3014 RMK A01 T00191053  RH  059%=      5-min Rain = 0
KHA2 140613Z 35011KT 02/M05 A3014 RMK A01 T00201053  RH  059%=      5-min Rain = 0
KHA2 140614Z 35010KT 02/M05 A3014 RMK A01 T00201053  RH  058%=      5-min Rain = 0
KHA2 140615Z 35011KT 02/M05 A3014 RMK A01 T00201053  RH  058%=      5-min Rain = 0
KHA2 140616Z 35010KT 02/M05 A3014 RMK A01 T00201053  RH  058%=      5-min Rain = 0
KHA2 140617Z 35011KT 02/M05 A3014 RMK A01 T00211053  RH  058%=      5-min Rain = 0
KHA2 140618Z 35011KT 02/M05 A3014 RMK A01 T00221054  RH  057%=      5-min Rain = 0
KHA2 140619Z 36011KT 02/M05 A3014 RMK A01 T00221054  RH  057%=      5-min Rain = 0
KHA2 140620Z 35012KT 02/M05 A3014 RMK A01 T00221054  RH  057%=      5-min Rain = 0
KHA2 140621Z 36012KT 02/M05 A3014 RMK A01 T00221054  RH  057%=      5-min Rain = 0
KHA2 140622Z 35012KT 02/M05 A3014 RMK A01 T00221054  RH  057%=      5-min Rain = 0
KHA2 140623Z 35012KT 02/M05 A3014 RMK A01 T00221054  RH  057%=      5-min Rain = 0
KHA2 140624Z 35012KT 02/M05 A3015 RMK A01 T00221054  RH  057%=      5-min Rain = 0
KHA2 140625Z 35012KT 02/M06 A3015 RMK A01 T00211055  RH  057%=      5-min Rain = 0
KHA2 140626Z 35012KT 02/M06 A3015 RMK A01 T00211055  RH  057%=      5-min Rain = 0
KHA2 140627Z 35012KT 02/M06 A3015 RMK A01 T00211055  RH  057%=      5-min Rain = 0
KHA2 140628Z 35012KT 02/M06 A3015 RMK A01 T00201055  RH  058%=      5-min Rain = 0
KHA2 140629Z 35012KT 02/M05 A3015 RMK A01 T00201054  RH  058%=      5-min Rain = 0
KHA2 140630Z 35011KT 02/M05 A3015 RMK A01 T00201054  RH  058%=      5-min Rain = 0
KHA2 140631Z 35011KT 02/M05 A3015 RMK A01 T00201054  RH  058%=      5-min Rain = 0
KHA2 140632Z 35011KT 02/M05 A3015 RMK A01 T00201054  RH  058%=      5-min Rain = 0
KHA2 140633Z 35011KT 02/M05 A3015 RMK A01 T00191054  RH  058%=      5-min Rain = 0
KHA2 140634Z 35011KT 02/M05 A3015 RMK A01 T00191054  RH  059%=      5-min Rain = 0
KHA2 140635Z 35012KT 02/M05 A3015 RMK A01 T00181054  RH  059%=      5-min Rain = 0
KHA2 140636Z 35011KT 02/M05 A3015 RMK A01 T00181054  RH  059%=      5-min Rain = 0
KHA2 140637Z 35011KT 02/M05 A3015 RMK A01 T00181054  RH  059%=      5-min Rain = 0
KHA2 140638Z 35011KT 02/M05 A3015 RMK A01 T00181054  RH  059%=      5-min Rain = 0
KHA2 140639Z 36011KT 02/M06 A3015 RMK A01 T00171055  RH  059%=      5-min Rain = 0
KHA2 140640Z 35011KT 02/M06 A3015 RMK A01 T00171055  RH  059%=      5-min Rain = 0
KHA2 140641Z 35011KT 02/M06 A3015 RMK A01 T00171056  RH  059%=      5-min Rain = 0
KHA2 140642Z 36011KT 02/M06 A3015 RMK A01 T00161056  RH  059%=      5-min Rain = 0
KHA2 140643Z 35011KT 02/M06 A3015 RMK A01 T00151056  RH  059%=      5-min Rain = 0
KHA2 140644Z 36011KT 02/M06 A3015 RMK A01 T00151056  RH  059%=      5-min Rain = 0
KHA2 140645Z 35011KT 02/M06 A3015 RMK A01 T00151056  RH  059%=      5-min Rain = 0
KHA2 140646Z 35011KT 02/M06 A3015 RMK A01 T00151056  RH  059%=      5-min Rain = 0
KHA2 140647Z 35011KT 01/M06 A3015 RMK A01 T00141056  RH  060%=      5-min Rain = 0
KHA2 140648Z 35011KT 01/M06 A3015 RMK A01 T00141056  RH  060%=      5-min Rain = 0
KHA2 140649Z 36011KT 01/M06 A3015 RMK A01 T00131056  RH  060%=      5-min Rain = 0
KHA2 140650Z 35011KT 01/M06 A3015 RMK A01 T00131056  RH  060%=      5-min Rain = 0
KHA2 140651Z 36011KT 01/M06 A3015 RMK A01 T00121056  RH  060%=      5-min Rain = 0
KHA2 140652Z 35011KT 01/M06 A3015 RMK A01 T00121056  RH  061%=      5-min Rain = 0
KHA2 140653Z 35011KT 01/M06 A3016 RMK A01 T00121056  RH  061%=      5-min Rain = 0
KHA2 140654Z 36011KT 01/M06 A3016 RMK A01 T00121055  RH  061%=      5-min Rain = 0
KHA2 140655Z 36011KT 01/M06 A3016 RMK A01 T00121055  RH  061%=      5-min Rain = 0
KHA2 140656Z 36011KT 01/M06 A3016 RMK A01 T00121055  RH  061%=      5-min Rain = 0
KHA2 140657Z 35010KT 01/M06 A3016 RMK A01 T00111056  RH  061%=      5-min Rain = 0
KHA2 140658Z 36011KT 01/M06 A3016 RMK A01 T00111056  RH  061%=      5-min Rain = 0
KHA2 140659Z 36011KT 01/M06 A3016 RMK A01 T00111056  RH  061%=      5-min Rain = 0
KHA2 140700Z 36011KT 01/M06 A3016 RMK A01 T00111055  RH  061%=      5-min Rain = 0
KHA2 140701Z 36011KT 01/M06 A3016 RMK A01 T00111056  RH  061%=      5-min Rain = 0
KHA2 140702Z 36011KT 01/M06 A3016 RMK A01 T00111056  RH  061%=      5-min Rain = 0
KHA2 140703Z 36010KT 01/M06 A3016 RMK A01 T00111055  RH  061%=      5-min Rain = 0
KHA2 140704Z 00011KT 01/M06 A3016 RMK A01 T00101056  RH  061%=      5-min Rain = 0
KHA2 140705Z 36011KT 01/M06 A3016 RMK A01 T00101056  RH  061%=      5-min Rain = 0
KHA2 140706Z 00011KT 01/M06 A3016 RMK A01 T00091056  RH  062%=      5-min Rain = 0
KHA2 140707Z 36011KT 01/M06 A3016 RMK A01 T00091056  RH  062%=      5-min Rain = 0
KHA2 140708Z 36011KT 01/M06 A3016 RMK A01 T00091056  RH  062%=      5-min Rain = 0
KHA2 140709Z 36011KT 01/M06 A3016 RMK A01 T00081056  RH  062%=      5-min Rain = 0
KHA2 140710Z 36010KT 01/M06 A3016 RMK A01 T00081056  RH  062%=      5-min Rain = 0
KHA2 140711Z 36010KT 01/M06 A3016 RMK A01 T00081056  RH  062%=      5-min Rain = 0
KHA2 140712Z 00011KT 01/M06 A3016 RMK A01 T00071056  RH  062%=      5-min Rain = 0
KHA2 140713Z 00011KT 01/M06 A3016 RMK A01 T00071056  RH  063%=      5-min Rain = 0
KHA2 140714Z 00010KT 01/M06 A3016 RMK A01 T00071056  RH  063%=      5-min Rain = 0
KHA2 140715Z 36010KT 01/M06 A3016 RMK A01 T00061056  RH  063%=      5-min Rain = 0
KHA2 140716Z 01010KT 01/M06 A3016 RMK A01 T00061056  RH  063%=      5-min Rain = 0
KHA2 140717Z 01010KT 01/M06 A3016 RMK A01 T00061056  RH  063%=      5-min Rain = 0
KHA2 140718Z 01009KT 01/M06 A3016 RMK A01 T00051057  RH  063%=      5-min Rain = 0
KHA2 140719Z 01009KT 00/M06 A3016 RMK A01 T00041057  RH  064%=      5-min Rain = 0
KHA2 140720Z 01008KT 00/M06 A3017 RMK A01 T00041057  RH  064%=      5-min Rain = 0
KHA2 140721Z 01008KT 00/M06 A3017 RMK A01 T00031057  RH  064%=      5-min Rain = 0
KHA2 140722Z 01008KT 00/M06 A3017 RMK A01 T00021057  RH  064%=      5-min Rain = 0
KHA2 140723Z 01008KT 00/M06 A3017 RMK A01 T00021057  RH  065%=      5-min Rain = 0
KHA2 140724Z 01008KT 00/M06 A3017 RMK A01 T00021057  RH  065%=      5-min Rain = 0
KHA2 140725Z 01007KT 00/M06 A3017 RMK A01 T00021057  RH  065%=      5-min Rain = 0
KHA2 140726Z 01008KT 00/M06 A3017 RMK A01 T00011057  RH  065%=      5-min Rain = 0
KHA2 140727Z 01008KT 00/M06 A3017 RMK A01 T00011057  RH  065%=      5-min Rain = 0
KHA2 140728Z 01008KT 00/M06 A3017 RMK A01 T00011057  RH  065%=      5-min Rain = 0
KHA2 140729Z 02008KT 00/M06 A3017 RMK A01 T00011057  RH  065%=      5-min Rain = 0
KHA2 140730Z 02008KT 00/M06 A3017 RMK A01 T00011057  RH  065%=      5-min Rain = 0
KHA2 140731Z 02007KT 00/M06 A3017 RMK A01 T00011057  RH  065%=      5-min Rain = 0
KHA2 140732Z 02007KT 00/M06 A3017 RMK A01 T00011057  RH  065%=      5-min Rain = 0
KHA2 140733Z 02008KT 00/M06 A3017 RMK A01 T00011057  RH  065%=      5-min Rain = 0
KHA2 140734Z 02007KT 00/M06 A3017 RMK A01 T00011057  RH  065%=      5-min Rain = 0
KHA2 140735Z 02007KT 00/M06 A3017 RMK A01 T00021056  RH  065%=      5-min Rain = 0
KHA2 140736Z 02007KT 00/M06 A3017 RMK A01 T00021056  RH  065%=      5-min Rain = 0
KHA2 140737Z 01008KT 00/M06 A3017 RMK A01 T00021056  RH  065%=      5-min Rain = 0
KHA2 140738Z 01008KT 00/M06 A3017 RMK A01 T00021056  RH  065%=      5-min Rain = 0
KHA2 140739Z 01008KT 00/M06 A3017 RMK A01 T00021056  RH  065%=      5-min Rain = 0
KHA2 140740Z 01007KT 00/06 A3017 RMK A01 T00000-58  RH  065%=      5-min Rain = 0
KHA2 140741Z 01008KT M00/M06 A3017 RMK A01 T10011058  RH  065%=      5-min Rain = 0
KHA2 140742Z 01008KT M00/M06 A3017 RMK A01 T10011058  RH  065%=      5-min Rain = 0
KHA2 140743Z 01008KT M00/M06 A3017 RMK A01 T10011058  RH  066%=      5-min Rain = 0
KHA2 140744Z 01008KT M00/M06 A3017 RMK A01 T10011058  RH  066%=      5-min Rain = 0
KHA2 140745Z 01008KT M00/M06 A3017 RMK A01 T10011058  RH  065%=      5-min Rain = 0
KHA2 140746Z 01008KT M00/M06 A3017 RMK A01 T10011058  RH  066%=      5-min Rain = 0
KHA2 140747Z 01008KT 00/06 A3018 RMK A01 T00-00-57  RH  066%=      5-min Rain = 0
KHA2 140748Z 01008KT 00/06 A3018 RMK A01 T00-00-57  RH  065%=      5-min Rain = 0
KHA2 140749Z 01008KT 00/M06 A3018 RMK A01 T00011057  RH  065%=      5-min Rain = 0
KHA2 140750Z 01008KT 00/M06 A3018 RMK A01 T00011057  RH  065%=      5-min Rain = 0
KHA2 140751Z 01008KT 00/M06 A3018 RMK A01 T00011057  RH  065%=      5-min Rain = 0
KHA2 140752Z 01008KT 00/M06 A3018 RMK A01 T00021057  RH  065%=      5-min Rain = 0
KHA2 140753Z 01008KT 00/M06 A3018 RMK A01 T00011057  RH  065%=      5-min Rain = 0
KHA2 140754Z 01008KT 00/M06 A3018 RMK A01 T00011057  RH  065%=      5-min Rain = 0
KHA2 140755Z 01008KT 00/M06 A3018 RMK A01 T00011057  RH  065%=      5-min Rain = 0
KHA2 140756Z 01007KT 00/M06 A3018 RMK A01 T00011057  RH  065%=      5-min Rain = 0
KHA2 140757Z 01007KT 00/06 A3018 RMK A01 T00000-58  RH  065%=      5-min Rain = 0
KHA2 140758Z 01007KT 00/06 A3018 RMK A01 T00-00-58  RH  065%=      5-min Rain = 0
KHA2 140759Z 01007KT M00/M06 A3018 RMK A01 T10011059  RH  065%=      5-min Rain = 0
KHA2 140800Z 01007KT M00/M06 A3018 RMK A01 T10011059  RH  065%=      5-min Rain = 0
KHA2 140801Z 00006KT M00/M06 A3018 RMK A01 T10031060  RH  065%=      5-min Rain = 0
KHA2 140802Z 01007KT M01/M06 A3018 RMK A01 T10061062  RH  066%=      5-min Rain = 0
KHA2 140803Z 00007KT M01/M06 A3018 RMK A01 T10071062  RH  067%=      5-min Rain = 0
KHA2 140804Z 00007KT M01/M06 A3018 RMK A01 T10071061  RH  067%=      5-min Rain = 0
KHA2 140805Z 01007KT M01/M06 A3018 RMK A01 T10071061  RH  067%=      5-min Rain = 0
KHA2 140806Z 01008KT M01/M06 A3019 RMK A01 T10071060  RH  067%=      5-min Rain = 0
KHA2 140807Z 01008KT M01/M06 A3019 RMK A01 T10071060  RH  067%=      5-min Rain = 0
KHA2 140808Z 01007KT M01/M06 A3019 RMK A01 T10061059  RH  067%=      5-min Rain = 0
KHA2 140809Z 00008KT M01/M06 A3019 RMK A01 T10051060  RH  067%=      5-min Rain = 0
KHA2 140810Z 01008KT M01/M06 A3019 RMK A01 T10051060  RH  066%=      5-min Rain = 0
KHA2 140811Z 00008KT M01/M06 A3019 RMK A01 T10051060  RH  066%=      5-min Rain = 0
KHA2 140812Z 01008KT M01/M06 A3019 RMK A01 T10051060  RH  066%=      5-min Rain = 0
KHA2 140813Z 00007KT M01/M06 A3019 RMK A01 T10051060  RH  066%=      5-min Rain = 0
KHA2 140814Z 00007KT M01/M06 A3019 RMK A01 T10051060  RH  066%=      5-min Rain = 0
KHA2 140815Z 00007KT M01/M06 A3019 RMK A01 T10051060  RH  066%=      5-min Rain = 0
KHA2 140816Z 00007KT M01/M06 A3019 RMK A01 T10061060  RH  067%=      5-min Rain = 0
KHA2 140817Z 00007KT M01/M06 A3019 RMK A01 T10061060  RH  067%=      5-min Rain = 0
KHA2 140818Z 00008KT M01/M06 A3019 RMK A01 T10061061  RH  067%=      5-min Rain = 0
KHA2 140819Z 00008KT M01/M06 A3019 RMK A01 T10071061  RH  067%=      5-min Rain = 0
KHA2 140820Z 01008KT M01/M06 A3019 RMK A01 T10071061  RH  067%=      5-min Rain = 0
KHA2 140821Z 01008KT M01/M06 A3019 RMK A01 T10071061  RH  067%=      5-min Rain = 0
KHA2 140822Z 01008KT M01/M06 A3019 RMK A01 T10061060  RH  067%=      5-min Rain = 0
KHA2 140823Z 01008KT M01/M06 A3019 RMK A01 T10061060  RH  067%=      5-min Rain = 0
KHA2 140824Z 01008KT M01/M06 A3019 RMK A01 T10061060  RH  066%=      5-min Rain = 0
KHA2 140825Z 01007KT M01/M06 A3019 RMK A01 T10051060  RH  066%=      5-min Rain = 0
KHA2 140826Z 00006KT M01/M06 A3019 RMK A01 T10051061  RH  066%=      5-min Rain = 0
KHA2 140827Z 00006KT M01/M06 A3019 RMK A01 T10061062  RH  066%=      5-min Rain = 0
KHA2 140828Z 01006KT M01/M06 A3019 RMK A01 T10071063  RH  066%=      5-min Rain = 0
KHA2 140829Z 00007KT M01/M06 A3019 RMK A01 T10081063  RH  066%=      5-min Rain = 0
KHA2 140830Z 00007KT M01/M06 A3019 RMK A01 T10081063  RH  067%=      5-min Rain = 0
KHA2 140831Z 01008KT M01/M06 A3019 RMK A01 T10081062  RH  067%=      5-min Rain = 0
KHA2 140832Z 00008KT M01/M06 A3019 RMK A01 T10091062  RH  067%=      5-min Rain = 0
KHA2 140833Z 00008KT M01/M06 A3019 RMK A01 T10081061  RH  068%=      5-min Rain = 0
KHA2 140834Z 00009KT M01/M06 A3019 RMK A01 T10081060  RH  068%=      5-min Rain = 0
KHA2 140835Z 01009KT M01/M06 A3019 RMK A01 T10071060  RH  068%=      5-min Rain = 0
KHA2 140836Z 01009KT M01/M06 A3019 RMK A01 T10071060  RH  068%=      5-min Rain = 0
KHA2 140837Z 01009KT M01/M06 A3019 RMK A01 T10081059  RH  068%=      5-min Rain = 0
KHA2 140838Z 01009KT M01/M06 A3019 RMK A01 T10071059  RH  068%=      5-min Rain = 0
KHA2 140839Z 01009KT M01/M06 A3019 RMK A01 T10071058  RH  068%=      5-min Rain = 0
KHA2 140840Z 01009KT M01/M06 A3019 RMK A01 T10061058  RH  068%=      5-min Rain = 0
KHA2 140841Z 01009KT M01/M06 A302 RMK A01 T10061058  RH  068%=      5-min Rain = 0
KHA2 140842Z 00009KT M01/M06 A302 RMK A01 T10051057  RH  067%=      5-min Rain = 0
KHA2 140843Z 01009KT M00/M06 A302 RMK A01 T10041057  RH  067%=      5-min Rain = 0
KHA2 140844Z 01009KT M00/M06 A302 RMK A01 T10031058  RH  067%=      5-min Rain = 0
KHA2 140845Z 01009KT M00/M06 A302 RMK A01 T10031057  RH  067%=      5-min Rain = 0
KHA2 140846Z 00010KT M00/M06 A302 RMK A01 T10031057  RH  067%=      5-min Rain = 0
KHA2 140847Z 00009KT M00/M06 A302 RMK A01 T10031057  RH  067%=      5-min Rain = 0
KHA2 140848Z 01010KT M00/M06 A302 RMK A01 T10031058  RH  067%=      5-min Rain = 0
KHA2 140849Z 01010KT M00/M06 A302 RMK A01 T10031058  RH  067%=      5-min Rain = 0
KHA2 140850Z 01009KT M00/M06 A302 RMK A01 T10041057  RH  067%=      5-min Rain = 0
KHA2 140851Z 01009KT M00/M06 A302 RMK A01 T10041058  RH  067%=      5-min Rain = 0
KHA2 140852Z 01009KT M01/M06 A302 RMK A01 T10051058  RH  067%=      5-min Rain = 0
KHA2 140853Z 01009KT M01/M06 A302 RMK A01 T10051058  RH  068%=      5-min Rain = 0
KHA2 140854Z 01009KT M01/M06 A302 RMK A01 T10051058  RH  068%=      5-min Rain = 0
KHA2 140855Z 00009KT M01/M06 A302 RMK A01 T10051057  RH  068%=      5-min Rain = 0
KHA2 140856Z 00009KT M01/M06 A302 RMK A01 T10061057  RH  068%=      5-min Rain = 0
KHA2 140857Z 00009KT M01/M06 A302 RMK A01 T10061058  RH  068%=      5-min Rain = 0
KHA2 140858Z 01009KT M01/M06 A302 RMK A01 T10061057  RH  068%=      5-min Rain = 0
KHA2 140859Z 01009KT M01/M06 A302 RMK A01 T10061057  RH  068%=      5-min Rain = 0
KHA2 140900Z 01009KT M01/M06 A302 RMK A01 T10061057  RH  068%=      5-min Rain = 0
KHA2 140901Z 01009KT M01/M06 A302 RMK A01 T10071057  RH  069%=      5-min Rain = 0
KHA2 140902Z 01009KT M01/M06 A302 RMK A01 T10071057  RH  069%=      5-min Rain = 0
KHA2 140903Z 01008KT M01/M06 A302 RMK A01 T10071056  RH  069%=      5-min Rain = 0
KHA2 140904Z 01009KT M01/M06 A302 RMK A01 T10071056  RH  069%=      5-min Rain = 0
KHA2 140905Z 01008KT M01/M06 A302 RMK A01 T10061056  RH  069%=      5-min Rain = 0
KHA2 140906Z 00008KT M01/M06 A302 RMK A01 T10061056  RH  069%=      5-min Rain = 0
KHA2 140907Z 00008KT M01/M06 A3021 RMK A01 T10071056  RH  069%=      5-min Rain = 0
KHA2 140908Z 00008KT M01/M06 A3021 RMK A01 T10071056  RH  069%=      5-min Rain = 0
KHA2 140909Z 00009KT M01/M06 A3021 RMK A01 T10071056  RH  069%=      5-min Rain = 0
KHA2 140910Z 00009KT M01/M06 A3021 RMK A01 T10071056  RH  069%=      5-min Rain = 0
KHA2 140911Z 00009KT M01/M06 A3021 RMK A01 T10061056  RH  069%=      5-min Rain = 0
KHA2 140912Z 00009KT M01/M06 A3021 RMK A01 T10061055  RH  069%=      5-min Rain = 0
KHA2 140913Z 36009KT M01/M06 A3021 RMK A01 T10051055  RH  069%=      5-min Rain = 0
KHA2 140914Z 36010KT M01/M06 A3021 RMK A01 T10061056  RH  069%=      5-min Rain = 0
KHA2 140915Z 00010KT M01/M06 A3021 RMK A01 T10071056  RH  069%=      5-min Rain = 0
KHA2 140916Z 00010KT M01/M06 A3021 RMK A01 T10071055  RH  070%=      5-min Rain = 0
KHA2 140917Z 00009KT M01/M06 A3021 RMK A01 T10081055  RH  070%=      5-min Rain = 0
KHA2 140918Z 00009KT M01/M06 A3021 RMK A01 T10081055  RH  070%=      5-min Rain = 0
KHA2 140919Z 00009KT M01/M06 A3021 RMK A01 T10081055  RH  070%=      5-min Rain = 0
KHA2 140920Z 00009KT M01/M05 A3021 RMK A01 T10071054  RH  070%=      5-min Rain = 0
KHA2 140921Z 36009KT M01/M05 A3021 RMK A01 T10061054  RH  070%=      5-min Rain = 0
KHA2 140922Z 00010KT M01/M05 A3021 RMK A01 T10061054  RH  070%=      5-min Rain = 0
KHA2 140923Z 36010KT M01/M05 A3021 RMK A01 T10051054  RH  070%=      5-min Rain = 0
KHA2 140924Z 36010KT M01/M05 A3021 RMK A01 T10051054  RH  069%=      5-min Rain = 0
KHA2 140925Z 36010KT M01/M05 A3021 RMK A01 T10051054  RH  069%=      5-min Rain = 0
KHA2 140926Z 36010KT M01/M06 A3021 RMK A01 T10051055  RH  069%=      5-min Rain = 0
KHA2 140927Z 36010KT M01/M06 A3021 RMK A01 T10061055  RH  069%=      5-min Rain = 0
KHA2 140928Z 36010KT M01/M06 A3021 RMK A01 T10061055  RH  069%=      5-min Rain = 0
KHA2 140929Z 36010KT M01/M06 A3021 RMK A01 T10061055  RH  069%=      5-min Rain = 0
KHA2 140930Z 00010KT M01/M06 A3022 RMK A01 T10061055  RH  069%=      5-min Rain = 0
KHA2 140931Z 36010KT M01/M06 A3022 RMK A01 T10061055  RH  069%=      5-min Rain = 0
KHA2 140932Z 36010KT M01/M06 A3022 RMK A01 T10061055  RH  070%=      5-min Rain = 0
KHA2 140933Z 36010KT M01/M06 A3022 RMK A01 T10061055  RH  069%=      5-min Rain = 0
KHA2 140934Z 00010KT M01/M06 A3022 RMK A01 T10061055  RH  070%=      5-min Rain = 0
KHA2 140935Z 36010KT M01/M06 A3022 RMK A01 T10061055  RH  070%=      5-min Rain = 0
KHA2 140936Z 36010KT M01/M06 A3022 RMK A01 T10061055  RH  070%=      5-min Rain = 0
KHA2 140937Z 36010KT M01/M05 A3022 RMK A01 T10061054  RH  070%=      5-min Rain = 0
KHA2 140938Z 36009KT M01/M05 A3022 RMK A01 T10061054  RH  070%=      5-min Rain = 0
KHA2 140939Z 00009KT M01/M05 A3022 RMK A01 T10051054  RH  070%=      5-min Rain = 0
KHA2 140940Z 00010KT M01/M05 A3022 RMK A01 T10051054  RH  070%=      5-min Rain = 0
KHA2 140941Z 00010KT M01/M05 A3022 RMK A01 T10061054  RH  070%=      5-min Rain = 0
KHA2 140942Z 00010KT M01/M05 A3022 RMK A01 T10071054  RH  070%=      5-min Rain = 0
KHA2 140943Z 01010KT M01/M05 A3022 RMK A01 T10071054  RH  071%=      5-min Rain = 0
KHA2 140944Z 01009KT M01/M05 A3022 RMK A01 T10081054  RH  071%=      5-min Rain = 0
KHA2 140945Z 01008KT M01/M05 A3022 RMK A01 T10091054  RH  071%=      5-min Rain = 0
KHA2 140946Z 01009KT M01/M05 A3022 RMK A01 T10091054  RH  072%=      5-min Rain = 0
KHA2 140947Z 01009KT M01/M05 A3022 RMK A01 T10101054  RH  072%=      5-min Rain = 0
KHA2 140948Z 01008KT M01/M05 A3022 RMK A01 T10101054  RH  072%=      5-min Rain = 0
KHA2 140949Z 01009KT M01/M05 A3022 RMK A01 T10101054  RH  072%=      5-min Rain = 0
KHA2 140950Z 01008KT M01/M05 A3022 RMK A01 T10101054  RH  072%=      5-min Rain = 0
KHA2 140951Z 01008KT M01/M05 A3022 RMK A01 T10101054  RH  072%=      5-min Rain = 0
KHA2 140952Z 01008KT M01/M05 A3022 RMK A01 T10101054  RH  072%=      5-min Rain = 0
KHA2 140953Z 01007KT M01/M05 A3022 RMK A01 T10101054  RH  072%=      5-min Rain = 0
KHA2 140954Z 01007KT M01/M05 A3022 RMK A01 T10101054  RH  072%=      5-min Rain = 0
KHA2 140955Z 00007KT M01/M05 A3022 RMK A01 T10101054  RH  072%=      5-min Rain = 0
KHA2 140956Z 01007KT M01/M06 A3022 RMK A01 T10111055  RH  072%=      5-min Rain = 0
KHA2 140957Z 01008KT M01/M06 A3022 RMK A01 T10111055  RH  072%=      5-min Rain = 0
KHA2 140958Z 01008KT M01/M06 A3022 RMK A01 T10121055  RH  072%=      5-min Rain = 0
KHA2 140959Z 00008KT M01/M06 A3022 RMK A01 T10121055  RH  073%=      5-min Rain = 0
KHA2 141000Z 00008KT M01/M06 A3022 RMK A01 T10121055  RH  073%=      5-min Rain = 0
KHA2 141001Z 00008KT M01/M05 A3022 RMK A01 T10121054  RH  073%=      5-min Rain = 0
KHA2 141002Z 36008KT M01/M06 A3022 RMK A01 T10121055  RH  073%=      5-min Rain = 0
KHA2 141003Z 00008KT M01/M05 A3022 RMK A01 T10121054  RH  073%=      5-min Rain = 0
KHA2 141004Z 00008KT M01/M05 A3022 RMK A01 T10121054  RH  073%=      5-min Rain = 0
KHA2 141005Z 00008KT M01/M06 A3022 RMK A01 T10121055  RH  073%=      5-min Rain = 0
KHA2 141006Z 00007KT M01/M06 A3022 RMK A01 T10131055  RH  073%=      5-min Rain = 0
KHA2 141007Z 00007KT M01/M06 A3022 RMK A01 T10131055  RH  073%=      5-min Rain = 0
KHA2 141008Z 00007KT M01/M06 A3023 RMK A01 T10131055  RH  073%=      5-min Rain = 0
KHA2 141009Z 00008KT M01/M06 A3023 RMK A01 T10141056  RH  073%=      5-min Rain = 0
KHA2 141010Z 00008KT M02/M06 A3023 RMK A01 T10151056  RH  074%=      5-min Rain = 0
KHA2 141011Z 00008KT M02/M06 A3023 RMK A01 T10151055  RH  074%=      5-min Rain = 0
KHA2 141012Z 36008KT M02/M06 A3023 RMK A01 T10151055  RH  074%=      5-min Rain = 0
KHA2 141013Z 36008KT M02/M06 A3023 RMK A01 T10151055  RH  074%=      5-min Rain = 0
KHA2 141014Z 36008KT M02/M06 A3023 RMK A01 T10161056  RH  074%=      5-min Rain = 0
KHA2 141015Z 36008KT M02/M06 A3023 RMK A01 T10161056  RH  074%=      5-min Rain = 0
KHA2 141016Z 00009KT M02/M06 A3023 RMK A01 T10171056  RH  075%=      5-min Rain = 0
KHA2 141017Z 00009KT M02/M06 A3023 RMK A01 T10171056  RH  075%=      5-min Rain = 0
KHA2 141018Z 00009KT M02/M06 A3023 RMK A01 T10161055  RH  074%=      5-min Rain = 0
KHA2 141019Z 36008KT M02/M06 A3023 RMK A01 T10161056  RH  074%=      5-min Rain = 0
KHA2 141020Z 00008KT M02/M06 A3023 RMK A01 T10171056  RH  074%=      5-min Rain = 0
KHA2 141021Z 36008KT M02/M06 A3023 RMK A01 T10171056  RH  074%=      5-min Rain = 0
KHA2 141022Z 36008KT M02/M06 A3023 RMK A01 T10171056  RH  074%=      5-min Rain = 0
KHA2 141023Z 00008KT M02/M06 A3023 RMK A01 T10171056  RH  074%=      5-min Rain = 0
KHA2 141024Z 36008KT M02/M06 A3023 RMK A01 T10161056  RH  074%=      5-min Rain = 0
KHA2 141025Z 36008KT M02/M06 A3023 RMK A01 T10161057  RH  074%=      5-min Rain = 0
KHA2 141026Z 36007KT M02/M06 A3023 RMK A01 T10161057  RH  074%=      5-min Rain = 0
KHA2 141027Z 36006KT M02/M06 A3023 RMK A01 T10161057  RH  073%=      5-min Rain = 0
KHA2 141028Z 35007KT M02/M06 A3023 RMK A01 T10161057  RH  073%=      5-min Rain = 0
KHA2 141029Z 35007KT M02/M06 A3024 RMK A01 T10161058  RH  073%=      5-min Rain = 0
KHA2 141030Z 35007KT M02/M06 A3024 RMK A01 T10171058  RH  074%=      5-min Rain = 0
KHA2 141031Z 35007KT M02/M06 A3024 RMK A01 T10171058  RH  074%=      5-min Rain = 0
KHA2 141032Z 35007KT M02/M06 A3024 RMK A01 T10181058  RH  074%=      5-min Rain = 0
KHA2 141033Z 34007KT M02/M06 A3024 RMK A01 T10181058  RH  074%=      5-min Rain = 0
KHA2 141034Z 35007KT M02/M06 A3024 RMK A01 T10181058  RH  074%=      5-min Rain = 0
KHA2 141035Z 35008KT M02/M06 A3024 RMK A01 T10171057  RH  074%=      5-min Rain = 0
KHA2 141036Z 35008KT M02/M06 A3024 RMK A01 T10171056  RH  075%=      5-min Rain = 0
KHA2 141037Z 35008KT M02/M06 A3024 RMK A01 T10161055  RH  075%=      5-min Rain = 0
KHA2 141038Z 35008KT M02/M06 A3024 RMK A01 T10151055  RH  074%=      5-min Rain = 0
KHA2 141039Z 35008KT M02/M06 A3024 RMK A01 T10151055  RH  074%=      5-min Rain = 0
KHA2 141040Z 35008KT M02/M06 A3024 RMK A01 T10151056  RH  074%=      5-min Rain = 0
KHA2 141041Z 35008KT M02/M06 A3024 RMK A01 T10151056  RH  074%=      5-min Rain = 0
KHA2 141042Z 35008KT M02/M06 A3024 RMK A01 T10151056  RH  074%=      5-min Rain = 0
KHA2 141043Z 35008KT M02/M06 A3024 RMK A01 T10161056  RH  074%=      5-min Rain = 0
KHA2 141044Z 35008KT M02/M06 A3024 RMK A01 T10161056  RH  074%=      5-min Rain = 0
KHA2 141045Z 35009KT M02/M06 A3024 RMK A01 T10161056  RH  074%=      5-min Rain = 0
KHA2 141046Z 35009KT M02/M06 A3024 RMK A01 T10161055  RH  074%=      5-min Rain = 0
KHA2 141047Z 35009KT M02/M06 A3024 RMK A01 T10161055  RH  075%=      5-min Rain = 0
KHA2 141048Z 35009KT M02/M06 A3024 RMK A01 T10161055  RH  075%=      5-min Rain = 0
KHA2 141049Z 35009KT M02/M06 A3024 RMK A01 T10161055  RH  075%=      5-min Rain = 0
KHA2 141050Z 35008KT M02/M06 A3024 RMK A01 T10161055  RH  075%=      5-min Rain = 0
KHA2 141051Z 36008KT M02/M06 A3024 RMK A01 T10161055  RH  075%=      5-min Rain = 0
KHA2 141052Z 36008KT M02/M06 A3024 RMK A01 T10161055  RH  075%=      5-min Rain = 0
KHA2 141053Z 00008KT M02/M06 A3024 RMK A01 T10161056  RH  074%=      5-min Rain = 0
KHA2 141054Z 00008KT M02/M06 A3024 RMK A01 T10161056  RH  074%=      5-min Rain = 0
KHA2 141055Z 00007KT M02/M06 A3024 RMK A01 T10171057  RH  074%=      5-min Rain = 0
KHA2 141056Z 00008KT M02/M06 A3024 RMK A01 T10181058  RH  074%=      5-min Rain = 0
KHA2 141057Z 00008KT M02/M06 A3024 RMK A01 T10191058  RH  075%=      5-min Rain = 0
KHA2 141058Z 36008KT M02/M06 A3024 RMK A01 T10201058  RH  075%=      5-min Rain = 0
KHA2 141059Z 36008KT M02/M06 A3024 RMK A01 T10201057  RH  075%=      5-min Rain = 0
KHA2 141100Z 35007KT M02/M06 A3024 RMK A01 T10201057  RH  075%=      5-min Rain = 0
KHA2 141101Z 35007KT M02/M06 A3024 RMK A01 T10201058  RH  075%=      5-min Rain = 0
KHA2 141102Z 35007KT M02/M06 A3024 RMK A01 T10211058  RH  075%=      5-min Rain = 0
KHA2 141103Z 35007KT M02/M06 A3024 RMK A01 T10211058  RH  076%=      5-min Rain = 0
KHA2 141104Z 35007KT M02/M06 A3024 RMK A01 T10211058  RH  076%=      5-min Rain = 0
KHA2 141105Z 35008KT M02/M06 A3024 RMK A01 T10211058  RH  076%=      5-min Rain = 0
KHA2 141106Z 35008KT M02/M06 A3024 RMK A01 T10211057  RH  076%=      5-min Rain = 0
KHA2 141107Z 35008KT M02/M06 A3024 RMK A01 T10211057  RH  076%=      5-min Rain = 0
KHA2 141108Z 34008KT M02/M06 A3025 RMK A01 T10201056  RH  076%=      5-min Rain = 0
KHA2 141109Z 35008KT M02/M06 A3025 RMK A01 T10191056  RH  076%=      5-min Rain = 0
KHA2 141110Z 35007KT M02/M06 A3025 RMK A01 T10191056  RH  076%=      5-min Rain = 0
KHA2 141111Z 35007KT M02/M06 A3025 RMK A01 T10191056  RH  076%=      5-min Rain = 0
KHA2 141112Z 35007KT M02/M06 A3025 RMK A01 T10191056  RH  076%=      5-min Rain = 0
KHA2 141113Z 35006KT M02/M06 A3025 RMK A01 T10191056  RH  076%=      5-min Rain = 0
KHA2 141114Z 34006KT M02/M06 A3025 RMK A01 T10191056  RH  075%=      5-min Rain = 0
KHA2 141115Z 34006KT M02/M06 A3025 RMK A01 T10191057  RH  075%=      5-min Rain = 0
KHA2 141116Z 34007KT M02/M06 A3025 RMK A01 T10191057  RH  075%=      5-min Rain = 0
KHA2 141117Z 35007KT M02/M06 A3025 RMK A01 T10191057  RH  075%=      5-min Rain = 0
KHA2 141118Z 35007KT M02/M06 A3025 RMK A01 T10181056  RH  075%=      5-min Rain = 0
KHA2 141119Z 35007KT M02/M06 A3025 RMK A01 T10181056  RH  075%=      5-min Rain = 0
KHA2 141120Z 35007KT M02/M06 A3025 RMK A01 T10181056  RH  075%=      5-min Rain = 0
KHA2 141121Z 35007KT M02/M06 A3025 RMK A01 T10181056  RH  075%=      5-min Rain = 0
KHA2 141122Z 35007KT M02/M06 A3025 RMK A01 T10181056  RH  075%=      5-min Rain = 0
KHA2 141123Z 34007KT M02/M06 A3025 RMK A01 T10181055  RH  076%=      5-min Rain = 0
KHA2 141124Z 34007KT M02/M06 A3025 RMK A01 T10191056  RH  076%=      5-min Rain = 0
KHA2 141125Z 34007KT M02/M06 A3025 RMK A01 T10191056  RH  076%=      5-min Rain = 0
KHA2 141126Z 34007KT M02/M06 A3025 RMK A01 T10191055  RH  076%=      5-min Rain = 0
KHA2 141127Z 35007KT M02/M06 A3025 RMK A01 T10191055  RH  076%=      5-min Rain = 0
KHA2 141128Z 35007KT M02/M05 A3025 RMK A01 T10181054  RH  076%=      5-min Rain = 0
KHA2 141129Z 34006KT M02/M05 A3025 RMK A01 T10181054  RH  076%=      5-min Rain = 0
KHA2 141130Z 34007KT M02/M05 A3025 RMK A01 T10171054  RH  076%=      5-min Rain = 0
KHA2 141131Z 34007KT M02/M06 A3025 RMK A01 T10181055  RH  076%=      5-min Rain = 0
KHA2 141132Z 34007KT M02/M05 A3026 RMK A01 T10181054  RH  076%=      5-min Rain = 0
KHA2 141133Z 34007KT M02/M05 A3026 RMK A01 T10171054  RH  076%=      5-min Rain = 0
KHA2 141134Z 34006KT M02/M05 A3026 RMK A01 T10171054  RH  076%=      5-min Rain = 0
KHA2 141135Z 34007KT M02/M05 A3025 RMK A01 T10171054  RH  076%=      5-min Rain = 0
KHA2 141136Z 34006KT M02/M05 A3025 RMK A01 T10181054  RH  076%=      5-min Rain = 0
KHA2 141137Z 35006KT M02/M05 A3025 RMK A01 T10171054  RH  076%=      5-min Rain = 0
KHA2 141138Z 35006KT M02/M05 A3025 RMK A01 T10181054  RH  076%=      5-min Rain = 0
KHA2 141139Z 35006KT M02/M05 A3025 RMK A01 T10181054  RH  076%=      5-min Rain = 0
KHA2 141140Z 35007KT M02/M05 A3025 RMK A01 T10181054  RH  076%=      5-min Rain = 0
KHA2 141141Z 35007KT M02/M05 A3025 RMK A01 T10171053  RH  076%=      5-min Rain = 0
KHA2 141142Z 35007KT M02/M05 A3025 RMK A01 T10181054  RH  076%=      5-min Rain = 0
KHA2 141143Z 35007KT M02/M05 A3025 RMK A01 T10191054  RH  077%=      5-min Rain = 0
KHA2 141144Z 35007KT M02/M05 A3025 RMK A01 T10191054  RH  077%=      5-min Rain = 0
KHA2 141145Z 35007KT M02/M05 A3025 RMK A01 T10191054  RH  077%=      5-min Rain = 0
KHA2 141146Z 35007KT M02/M05 A3025 RMK A01 T10191054  RH  077%=      5-min Rain = 0
KHA2 141147Z 35007KT M02/M05 A3025 RMK A01 T10191054  RH  077%=      5-min Rain = 0
KHA2 141148Z 35007KT M02/M05 A3026 RMK A01 T10191054  RH  077%=      5-min Rain = 0
KHA2 141149Z 35007KT M02/M05 A3026 RMK A01 T10201054  RH  077%=      5-min Rain = 0
KHA2 141150Z 35007KT M02/M05 A3026 RMK A01 T10201054  RH  078%=      5-min Rain = 0
KHA2 141151Z 35007KT M02/M05 A3026 RMK A01 T10201054  RH  078%=      5-min Rain = 0
KHA2 141152Z 35007KT M02/M05 A3026 RMK A01 T10211054  RH  078%=      5-min Rain = 0
KHA2 141153Z 35007KT M02/M05 A3026 RMK A01 T10211054  RH  078%=      5-min Rain = 0
KHA2 141154Z 35007KT M02/M05 A3026 RMK A01 T10211054  RH  078%=      5-min Rain = 0
KHA2 141155Z 35008KT M02/M05 A3026 RMK A01 T10211054  RH  079%=      5-min Rain = 0
KHA2 141156Z 35008KT M02/M05 A3026 RMK A01 T10211053  RH  079%=      5-min Rain = 0
KHA2 141157Z 35008KT M02/M05 A3026 RMK A01 T10211053  RH  079%=      5-min Rain = 0
KHA2 141158Z 35008KT M02/M05 A3026 RMK A01 T10221054  RH  079%=      5-min Rain = 0
KHA2 141159Z 35008KT M02/M05 A3027 RMK A01 T10221054  RH  079%=      5-min Rain = 0
KHA2 141200Z 35008KT M02/M05 A3027 RMK A01 T10221054  RH  079%=      5-min Rain = 0
KHA2 141201Z 35008KT M02/M05 A3027 RMK A01 T10221054  RH  079%=      5-min Rain = 0
KHA2 141202Z 35008KT M02/M05 A3027 RMK A01 T10231054  RH  079%=      5-min Rain = 0
KHA2 141203Z 35009KT M02/M05 A3027 RMK A01 T10221053  RH  079%=      5-min Rain = 0
KHA2 141204Z 35008KT M02/M05 A3027 RMK A01 T10231053  RH  079%=      5-min Rain = 0
KHA2 141205Z 36008KT M02/M05 A3027 RMK A01 T10231054  RH  079%=      5-min Rain = 0
KHA2 141206Z 36008KT M02/M05 A3027 RMK A01 T10231054  RH  079%=      5-min Rain = 0
KHA2 141207Z 36008KT M02/M05 A3027 RMK A01 T10231053  RH  079%=      5-min Rain = 0
KHA2 141208Z 35008KT M02/M05 A3027 RMK A01 T10231053  RH  080%=      5-min Rain = 0
KHA2 141209Z 35008KT M02/M05 A3027 RMK A01 T10221053  RH  080%=      5-min Rain = 0
KHA2 141210Z 36007KT M02/M05 A3027 RMK A01 T10221052  RH  080%=      5-min Rain = 0
KHA2 141211Z 36007KT M02/M05 A3027 RMK A01 T10211052  RH  079%=      5-min Rain = 0
KHA2 141212Z 36007KT M02/M05 A3027 RMK A01 T10211052  RH  079%=      5-min Rain = 0
KHA2 141213Z 36006KT M02/M05 A3027 RMK A01 T10211052  RH  079%=      5-min Rain = 0
KHA2 141214Z 35007KT M02/M05 A3027 RMK A01 T10211052  RH  079%=      5-min Rain = 0
KHA2 141215Z 36007KT M02/M05 A3027 RMK A01 T10211052  RH  079%=      5-min Rain = 0
KHA2 141216Z 35007KT M02/M05 A3028 RMK A01 T10211052  RH  079%=      5-min Rain = 0
KHA2 141217Z 35007KT M02/M05 A3028 RMK A01 T10221053  RH  079%=      5-min Rain = 0
KHA2 141218Z 35007KT M02/M05 A3028 RMK A01 T10221053  RH  080%=      5-min Rain = 0
KHA2 141219Z 35007KT M02/M05 A3028 RMK A01 T10231053  RH  080%=      5-min Rain = 0
KHA2 141220Z 35007KT M02/M05 A3028 RMK A01 T10221052  RH  080%=      5-min Rain = 0
KHA2 141221Z 35007KT M02/M05 A3028 RMK A01 T10231052  RH  080%=      5-min Rain = 0
KHA2 141222Z 35007KT M02/M05 A3028 RMK A01 T10231053  RH  080%=      5-min Rain = 0
KHA2 141223Z 35007KT M02/M05 A3028 RMK A01 T10231052  RH  080%=      5-min Rain = 0
KHA2 141224Z 35007KT M02/M05 A3028 RMK A01 T10221052  RH  080%=      5-min Rain = 0
KHA2 141225Z 35007KT M02/M05 A3028 RMK A01 T10221052  RH  080%=      5-min Rain = 0
KHA2 141226Z 35007KT M02/M05 A3028 RMK A01 T10221051  RH  080%=      5-min Rain = 0
KHA2 141227Z 35007KT M02/M05 A3028 RMK A01 T10221052  RH  080%=      5-min Rain = 0
KHA2 141228Z 34006KT M02/M05 A3029 RMK A01 T10221052  RH  080%=      5-min Rain = 0
KHA2 141229Z 35006KT M02/M05 A3029 RMK A01 T10231053  RH  080%=      5-min Rain = 0
KHA2 141230Z 34006KT M02/M05 A3029 RMK A01 T10241053  RH  080%=      5-min Rain = 0
KHA2 141231Z 34006KT M02/M05 A3029 RMK A01 T10241053  RH  081%=      5-min Rain = 0
KHA2 141232Z 34006KT M02/M05 A3029 RMK A01 T10241053  RH  081%=      5-min Rain = 0
KHA2 141233Z 34006KT M03/M05 A3029 RMK A01 T10251053  RH  081%=      5-min Rain = 0
KHA2 141234Z 35006KT M02/M05 A3029 RMK A01 T10241053  RH  081%=      5-min Rain = 0
KHA2 141235Z 35005KT M02/M05 A3029 RMK A01 T10241053  RH  081%=      5-min Rain = 0
KHA2 141236Z 35005KT M02/M05 A3029 RMK A01 T10241052  RH  081%=      5-min Rain = 0
KHA2 141237Z 35005KT M02/M05 A3029 RMK A01 T10241053  RH  081%=      5-min Rain = 0
KHA2 141238Z 34005KT M02/M05 A3029 RMK A01 T10241053  RH  080%=      5-min Rain = 0
KHA2 141239Z 34005KT M02/M05 A3029 RMK A01 T10241053  RH  080%=      5-min Rain = 0
KHA2 141240Z 34006KT M03/M05 A3029 RMK A01 T10251054  RH  080%=      5-min Rain = 0
KHA2 141241Z 34006KT M03/M05 A303 RMK A01 T10251054  RH  081%=      5-min Rain = 0
KHA2 141242Z 34006KT M03/M05 A303 RMK A01 T10251054  RH  081%=      5-min Rain = 0
KHA2 141243Z 34007KT M03/M05 A303 RMK A01 T10251053  RH  081%=      5-min Rain = 0
KHA2 141244Z 34007KT M03/M05 A303 RMK A01 T10251054  RH  081%=      5-min Rain = 0
KHA2 141245Z 34007KT M03/M05 A303 RMK A01 T10251054  RH  081%=      5-min Rain = 0
KHA2 141246Z 34007KT M03/M05 A303 RMK A01 T10261054  RH  081%=      5-min Rain = 0
KHA2 141247Z 34007KT M03/M05 A303 RMK A01 T10261054  RH  081%=      5-min Rain = 0
KHA2 141248Z 34007KT M03/M05 A303 RMK A01 T10261054  RH  081%=      5-min Rain = 0
KHA2 141249Z 34007KT M03/M05 A303 RMK A01 T10261054  RH  081%=      5-min Rain = 0
KHA2 141250Z 34007KT M03/M05 A303 RMK A01 T10251054  RH  081%=      5-min Rain = 0
KHA2 141251Z 34007KT M03/M05 A303 RMK A01 T10251053  RH  081%=      5-min Rain = 0
KHA2 141252Z 34007KT M02/M05 A303 RMK A01 T10241053  RH  080%=      5-min Rain = 0
KHA2 141253Z 34007KT M02/M05 A303 RMK A01 T10241054  RH  080%=      5-min Rain = 0
KHA2 141254Z 34007KT M02/M05 A303 RMK A01 T10241054  RH  080%=      5-min Rain = 0
KHA2 141255Z 34007KT M02/M05 A303 RMK A01 T10241053  RH  080%=      5-min Rain = 0
KHA2 141256Z 34007KT M03/M05 A303 RMK A01 T10251054  RH  080%=      5-min Rain = 0
KHA2 141257Z 34007KT M03/M05 A303 RMK A01 T10251054  RH  080%=      5-min Rain = 0
KHA2 141258Z 34007KT M03/M05 A303 RMK A01 T10251054  RH  080%=      5-min Rain = 0
KHA2 141259Z 35008KT M03/M05 A303 RMK A01 T10251054  RH  080%=      5-min Rain = 0
KHA2 141300Z 35007KT M03/M06 A303 RMK A01 T10261055  RH  081%=      5-min Rain = 0
KHA2 141301Z 35007KT M03/M06 A303 RMK A01 T10261055  RH  081%=      5-min Rain = 0
KHA2 141302Z 35007KT M03/M06 A303 RMK A01 T10261055  RH  081%=      5-min Rain = 0
KHA2 141303Z 35007KT M03/M06 A3031 RMK A01 T10261055  RH  081%=      5-min Rain = 0
KHA2 141304Z 35008KT M03/M06 A3031 RMK A01 T10261055  RH  081%=      5-min Rain = 0
KHA2 141305Z 35008KT M03/M05 A3031 RMK A01 T10261054  RH  081%=      5-min Rain = 0
KHA2 141306Z 35008KT M03/M06 A3031 RMK A01 T10271055  RH  081%=      5-min Rain = 0
KHA2 141307Z 35008KT M03/M05 A3031 RMK A01 T10271054  RH  081%=      5-min Rain = 0
KHA2 141308Z 35008KT M03/M06 A3031 RMK A01 T10271055  RH  081%=      5-min Rain = 0
KHA2 141309Z 35008KT M03/M06 A3031 RMK A01 T10271055  RH  082%=      5-min Rain = 0
KHA2 141310Z 35009KT M03/M05 A3031 RMK A01 T10281054  RH  082%=      5-min Rain = 0
KHA2 141311Z 35009KT M03/M05 A3031 RMK A01 T10271054  RH  082%=      5-min Rain = 0
KHA2 141312Z 35009KT M03/M05 A3031 RMK A01 T10281054  RH  082%=      5-min Rain = 0
KHA2 141313Z 35009KT M03/M05 A3031 RMK A01 T10271054  RH  082%=      5-min Rain = 0
KHA2 141314Z 35009KT M03/M05 A3031 RMK A01 T10271053  RH  082%=      5-min Rain = 0
KHA2 141315Z 35009KT M03/M05 A3031 RMK A01 T10271054  RH  082%=      5-min Rain = 0
KHA2 141316Z 36009KT M03/M05 A3031 RMK A01 T10271054  RH  082%=      5-min Rain = 0
KHA2 141317Z 35009KT M03/M05 A3031 RMK A01 T10271054  RH  081%=      5-min Rain = 0
KHA2 141318Z 35009KT M03/M06 A3031 RMK A01 T10271055  RH  081%=      5-min Rain = 0
KHA2 141319Z 35009KT M03/M06 A3031 RMK A01 T10271055  RH  081%=      5-min Rain = 0
KHA2 141320Z 36008KT M03/M06 A3031 RMK A01 T10281056  RH  081%=      5-min Rain = 0
KHA2 141321Z 35008KT M03/M06 A3031 RMK A01 T10291057  RH  081%=      5-min Rain = 0
KHA2 141322Z 35008KT M03/M06 A3031 RMK A01 T10291057  RH  081%=      5-min Rain = 0
KHA2 141323Z 35008KT M03/M06 A3032 RMK A01 T10301057  RH  082%=      5-min Rain = 0
KHA2 141324Z 35008KT M03/M06 A3032 RMK A01 T10291056  RH  082%=      5-min Rain = 0
KHA2 141325Z 35008KT M03/M06 A3032 RMK A01 T10291056  RH  082%=      5-min Rain = 0
KHA2 141326Z 35008KT M03/M06 A3032 RMK A01 T10291056  RH  082%=      5-min Rain = 0
KHA2 141327Z 35008KT M03/M06 A3032 RMK A01 T10291056  RH  082%=      5-min Rain = 0
KHA2 141328Z 35008KT M03/M06 A3032 RMK A01 T10291056  RH  082%=      5-min Rain = 0
KHA2 141329Z 35008KT M03/M06 A3032 RMK A01 T10291056  RH  082%=      5-min Rain = 0
KHA2 141330Z 35007KT M03/M06 A3032 RMK A01 T10291056  RH  082%=      5-min Rain = 0
KHA2 141331Z 35007KT M03/M06 A3032 RMK A01 T10291056  RH  082%=      5-min Rain = 0
KHA2 141332Z 35007KT M03/M06 A3032 RMK A01 T10301056  RH  082%=      5-min Rain = 0
KHA2 141333Z 35007KT M03/M05 A3032 RMK A01 T10291054  RH  083%=      5-min Rain = 0
KHA2 141334Z 35006KT M03/M05 A3032 RMK A01 T10281053  RH  083%=      5-min Rain = 0
KHA2 141335Z 35007KT M03/M05 A3032 RMK A01 T10271052  RH  083%=      5-min Rain = 0
KHA2 141336Z 35007KT M03/M05 A3032 RMK A01 T10261051  RH  083%=      5-min Rain = 0
KHA2 141337Z 35007KT M03/M05 A3032 RMK A01 T10251051  RH  082%=      5-min Rain = 0
KHA2 141338Z 35007KT M02/M05 A3032 RMK A01 T10241051  RH  082%=      5-min Rain = 0
KHA2 141339Z 35007KT M02/M05 A3032 RMK A01 T10241051  RH  082%=      5-min Rain = 0
KHA2 141340Z 36007KT M02/M05 A3032 RMK A01 T10241051  RH  081%=      5-min Rain = 0
KHA2 141341Z 35007KT M02/M05 A3032 RMK A01 T10231051  RH  081%=      5-min Rain = 0
KHA2 141342Z 35007KT M02/M05 A3032 RMK A01 T10231051  RH  081%=      5-min Rain = 0
KHA2 141343Z 35007KT M02/M05 A3032 RMK A01 T10231051  RH  081%=      5-min Rain = 0
KHA2 141344Z 35007KT M02/M05 A3032 RMK A01 T10221050  RH  081%=      5-min Rain = 0
KHA2 141345Z 35007KT M02/M05 A3033 RMK A01 T10221050  RH  081%=      5-min Rain = 0
KHA2 141346Z 35007KT M02/M05 A3033 RMK A01 T10211050  RH  081%=      5-min Rain = 0
KHA2 141347Z 35007KT M02/M05 A3033 RMK A01 T10211050  RH  080%=      5-min Rain = 0
KHA2 141348Z 35007KT M02/M05 A3033 RMK A01 T10201049  RH  080%=      5-min Rain = 0
KHA2 141349Z 35007KT M02/M05 A3033 RMK A01 T10201049  RH  080%=      5-min Rain = 0
KHA2 141350Z 35007KT M02/M05 A3033 RMK A01 T10191049  RH  080%=      5-min Rain = 0
KHA2 141351Z 35007KT M02/M05 A3033 RMK A01 T10191049  RH  080%=      5-min Rain = 0
KHA2 141352Z 35006KT M02/M05 A3033 RMK A01 T10181049  RH  080%=      5-min Rain = 0
KHA2 141353Z 35006KT M02/M05 A3033 RMK A01 T10181048  RH  080%=      5-min Rain = 0
KHA2 141354Z 35006KT M02/M05 A3033 RMK A01 T10171048  RH  080%=      5-min Rain = 0
KHA2 141355Z 35006KT M02/M05 A3033 RMK A01 T10161047  RH  079%=      5-min Rain = 0
KHA2 141356Z 35006KT M02/M05 A3033 RMK A01 T10161047  RH  079%=      5-min Rain = 0
KHA2 141357Z 36006KT M02/M05 A3033 RMK A01 T10151046  RH  079%=      5-min Rain = 0
KHA2 141358Z 35006KT M01/M05 A3033 RMK A01 T10141045  RH  079%=      5-min Rain = 0
KHA2 141359Z 35006KT M01/M04 A3033 RMK A01 T10131044  RH  079%=      5-min Rain = 0
KHA2 141400Z 35006KT M01/M04 A3033 RMK A01 T10121043  RH  079%=      5-min Rain = 0
KHA2 141401Z 36006KT M01/M04 A3034 RMK A01 T10101042  RH  079%=      5-min Rain = 0
KHA2 141402Z 35006KT M01/M04 A3034 RMK A01 T10101042  RH  078%=      5-min Rain = 0
KHA2 141403Z 36006KT M01/M04 A3034 RMK A01 T10091042  RH  078%=      5-min Rain = 0
KHA2 141404Z 35006KT M01/M04 A3034 RMK A01 T10081042  RH  078%=      5-min Rain = 0
KHA2 141405Z 35006KT M01/M04 A3034 RMK A01 T10081041  RH  078%=      5-min Rain = 0
KHA2 141406Z 35006KT M01/M04 A3034 RMK A01 T10071041  RH  078%=      5-min Rain = 0
KHA2 141407Z 36006KT M01/M04 A3034 RMK A01 T10071041  RH  077%=      5-min Rain = 0
KHA2 141408Z 35006KT M01/M04 A3034 RMK A01 T10061041  RH  077%=      5-min Rain = 0
KHA2 141409Z 35006KT M01/M04 A3034 RMK A01 T10061041  RH  077%=      5-min Rain = 0
KHA2 141410Z 35006KT M01/M04 A3034 RMK A01 T10051040  RH  077%=      5-min Rain = 0
KHA2 141411Z 36006KT M00/M04 A3034 RMK A01 T10041040  RH  077%=      5-min Rain = 0
KHA2 141412Z 36006KT M00/M04 A3034 RMK A01 T10041039  RH  077%=      5-min Rain = 0
KHA2 141413Z 00007KT M00/M04 A3034 RMK A01 T10021038  RH  077%=      5-min Rain = 0
KHA2 141414Z 00007KT M00/M04 A3035 RMK A01 T10011036  RH  077%=      5-min Rain = 0
KHA2 141415Z 36007KT 00/04 A3035 RMK A01 T00000-35  RH  077%=      5-min Rain = 0
KHA2 141416Z 36006KT 00/M04 A3035 RMK A01 T00011035  RH  077%=      5-min Rain = 0
KHA2 141417Z 36006KT 00/M03 A3035 RMK A01 T00021034  RH  076%=      5-min Rain = 0
KHA2 141418Z 00006KT 00/M04 A3035 RMK A01 T00021035  RH  076%=      5-min Rain = 0
KHA2 141419Z 00006KT 00/M03 A3035 RMK A01 T00031034  RH  076%=      5-min Rain = 0
KHA2 141420Z 36006KT 00/M03 A3035 RMK A01 T00041033  RH  076%=      5-min Rain = 0
KHA2 141421Z 36006KT 01/M03 A3035 RMK A01 T00051032  RH  076%=      5-min Rain = 0
KHA2 141422Z 00006KT 01/M03 A3035 RMK A01 T00061032  RH  076%=      5-min Rain = 0
KHA2 141423Z 00005KT 01/M03 A3035 RMK A01 T00071031  RH  076%=      5-min Rain = 0
KHA2 141424Z 01005KT 01/M03 A3035 RMK A01 T00081030  RH  076%=      5-min Rain = 0
KHA2 141425Z 01006KT 01/M03 A3036 RMK A01 T00091030  RH  076%=      5-min Rain = 0
KHA2 141426Z 01006KT 01/M03 A3036 RMK A01 T00091030  RH  075%=      5-min Rain = 0
KHA2 141427Z 01006KT 01/M03 A3036 RMK A01 T00111028  RH  075%=      5-min Rain = 0
KHA2 141428Z 01006KT 01/M03 A3036 RMK A01 T00111028  RH  075%=      5-min Rain = 0
KHA2 141429Z 02006KT 01/M03 A3036 RMK A01 T00121027  RH  075%=      5-min Rain = 0
KHA2 141430Z 02007KT 02/M03 A3036 RMK A01 T00151025  RH  075%=      5-min Rain = 0
KHA2 141431Z 02008KT 02/M03 A3036 RMK A01 T00161025  RH  074%=      5-min Rain = 0
KHA2 141432Z 02009KT 02/M03 A3036 RMK A01 T00161025  RH  074%=      5-min Rain = 0
KHA2 141433Z 02007KT 02/M03 A3036 RMK A01 T00171025  RH  074%=      5-min Rain = 0
KHA2 141434Z 02008KT 02/M02 A3036 RMK A01 T00171024  RH  074%=      5-min Rain = 0
KHA2 141435Z 01007KT 02/M02 A3036 RMK A01 T00181024  RH  074%=      5-min Rain = 0
KHA2 141436Z 02008KT 02/M02 A3036 RMK A01 T00191023  RH  074%=      5-min Rain = 0
KHA2 141437Z 02008KT 02/M02 A3036 RMK A01 T00191024  RH  073%=      5-min Rain = 0
KHA2 141438Z 02008KT 02/M03 A3036 RMK A01 T00191025  RH  073%=      5-min Rain = 0
KHA2 141439Z 02007KT 02/M02 A3037 RMK A01 T00191024  RH  074%=      5-min Rain = 0
KHA2 141440Z 02007KT 02/M02 A3037 RMK A01 T00191023  RH  074%=      5-min Rain = 0
KHA2 141441Z 02007KT 02/M02 A3037 RMK A01 T00211021  RH  074%=      5-min Rain = 0
KHA2 141442Z 01007KT 02/M02 A3037 RMK A01 T00221021  RH  073%=      5-min Rain = 0
KHA2 141443Z 02008KT 02/M02 A3037 RMK A01 T00221022  RH  073%=      5-min Rain = 0
KHA2 141444Z 02007KT 02/M02 A3037 RMK A01 T00221022  RH  073%=      5-min Rain = 0
KHA2 141445Z 01008KT 02/M02 A3037 RMK A01 T00231021  RH  073%=      5-min Rain = 0
KHA2 141446Z 02007KT 02/M02 A3037 RMK A01 T00231021  RH  072%=      5-min Rain = 0
KHA2 141447Z 02007KT 02/M02 A3037 RMK A01 T00241020  RH  072%=      5-min Rain = 0
KHA2 141448Z 03008KT 03/M02 A3037 RMK A01 T00251021  RH  072%=      5-min Rain = 0
KHA2 141449Z 02006KT 03/M02 A3037 RMK A01 T00251021  RH  072%=      5-min Rain = 0
KHA2 141450Z 02008KT 03/M02 A3037 RMK A01 T00261020  RH  072%=      5-min Rain = 0
KHA2 141451Z 02007KT 03/M02 A3037 RMK A01 T00271019  RH  072%=      5-min Rain = 0
KHA2 141452Z 03006KT 03/M02 A3037 RMK A01 T00271019  RH  072%=      5-min Rain = 0
KHA2 141453Z 02007KT 03/M02 A3037 RMK A01 T00291017  RH  072%=      5-min Rain = 0
KHA2 141454Z 02007KT 03/M02 A3037 RMK A01 T00301017  RH  071%=      5-min Rain = 0
KHA2 141455Z 03007KT 03/M02 A3037 RMK A01 T00301018  RH  070%=      5-min Rain = 0
KHA2 141456Z 03007KT 03/M02 A3037 RMK A01 T00291020  RH  070%=      5-min Rain = 0
KHA2 141457Z 03007KT 03/M02 A3037 RMK A01 T00291019  RH  071%=      5-min Rain = 0
KHA2 141458Z 02008KT 03/M02 A3037 RMK A01 T00291020  RH  071%=      5-min Rain = 0
KHA2 141459Z 02007KT 03/M02 A3037 RMK A01 T00291019  RH  071%=      5-min Rain = 0
KHA2 141500Z 02006KT 03/M02 A3038 RMK A01 T00301018  RH  071%=      5-min Rain = 0
KHA2 141501Z 03006KT 03/M02 A3038 RMK A01 T00321015  RH  071%=      5-min Rain = 0
KHA2 141502Z 03007KT 03/M02 A3038 RMK A01 T00331017  RH  070%=      5-min Rain = 0
KHA2 141503Z 03007KT 03/M02 A3038 RMK A01 T00331016  RH  070%=      5-min Rain = 0
KHA2 141504Z 03006KT 03/M02 A3038 RMK A01 T00341016  RH  070%=      5-min Rain = 0
KHA2 141505Z 03006KT 03/M02 A3038 RMK A01 T00341016  RH  069%=      5-min Rain = 0
KHA2 141506Z 02006KT 04/M02 A3038 RMK A01 T00351016  RH  069%=      5-min Rain = 0
KHA2 141507Z 03008KT 04/M02 A3038 RMK A01 T00361016  RH  069%=      5-min Rain = 0
KHA2 141508Z 03007KT 04/M02 A3038 RMK A01 T00351016  RH  069%=      5-min Rain = 0
KHA2 141509Z 03007KT 04/M02 A3038 RMK A01 T00351016  RH  069%=      5-min Rain = 0
KHA2 141510Z 03007KT 04/M02 A3038 RMK A01 T00351017  RH  069%=      5-min Rain = 0
KHA2 141511Z 03008KT 03/M02 A3038 RMK A01 T00341016  RH  069%=      5-min Rain = 0
KHA2 141512Z 02007KT 04/M02 A3038 RMK A01 T00351016  RH  069%=      5-min Rain = 0
KHA2 141513Z 02008KT 04/M02 A3038 RMK A01 T00351016  RH  069%=      5-min Rain = 0
KHA2 141514Z 03008KT 04/M02 A3038 RMK A01 T00351016  RH  069%=      5-min Rain = 0
KHA2 141515Z 03008KT 04/M02 A3038 RMK A01 T00351015  RH  070%=      5-min Rain = 0
KHA2 141516Z 03008KT 04/M02 A3038 RMK A01 T00361015  RH  069%=      5-min Rain = 0
KHA2 141517Z 04009KT 04/M01 A3038 RMK A01 T00371013  RH  070%=      5-min Rain = 0
KHA2 141518Z 04007KT 04/M01 A3038 RMK A01 T00391010  RH  070%=      5-min Rain = 0
KHA2 141519Z 03007KT 04/M01 A3039 RMK A01 T00411009  RH  070%=      5-min Rain = 0
KHA2 141520Z 03008KT 04/M01 A3039 RMK A01 T00431008  RH  070%=      5-min Rain = 0
KHA2 141521Z 04008KT 04/M01 A3039 RMK A01 T00441008  RH  069%=      5-min Rain = 0
KHA2 141522Z 03007KT 04/M01 A3039 RMK A01 T00431009  RH  069%=      5-min Rain = 0
KHA2 141523Z 04008KT 04/M01 A3039 RMK A01 T00441008  RH  069%=      5-min Rain = 0
KHA2 141524Z 04007KT 04/M01 A3039 RMK A01 T00441009  RH  069%=      5-min Rain = 0
KHA2 141525Z 03007KT 04/M01 A3039 RMK A01 T00441009  RH  069%=      5-min Rain = 0
KHA2 141526Z 02008KT 05/M01 A3039 RMK A01 T00451008  RH  068%=      5-min Rain = 0
KHA2 141527Z 02007KT 05/M01 A3039 RMK A01 T00451008  RH  068%=      5-min Rain = 0
KHA2 141528Z 03009KT 05/M01 A3039 RMK A01 T00461007  RH  068%=      5-min Rain = 0
KHA2 141529Z 04009KT 05/M01 A3039 RMK A01 T00461007  RH  069%=      5-min Rain = 0
KHA2 141530Z 05007KT 05/M00 A3039 RMK A01 T00471004  RH  070%=      5-min Rain = 0
KHA2 141531Z 03009KT 05/M00 A3039 RMK A01 T00491003  RH  069%=      5-min Rain = 0
KHA2 141532Z 03008KT 05/M01 A3039 RMK A01 T00501005  RH  068%=      5-min Rain = 0
KHA2 141533Z 03008KT 05/M01 A3039 RMK A01 T00491005  RH  068%=      5-min Rain = 0
KHA2 141534Z 04009KT 05/M01 A3039 RMK A01 T00501005  RH  068%=      5-min Rain = 0
KHA2 141535Z 03009KT 05/M01 A3039 RMK A01 T00491006  RH  068%=      5-min Rain = 0
KHA2 141536Z 03009KT 05/M01 A3039 RMK A01 T00491005  RH  068%=      5-min Rain = 0
KHA2 141537Z 03007KT 05/M01 A3039 RMK A01 T00491005  RH  068%=      5-min Rain = 0
KHA2 141538Z 04006KT 05/M01 A3039 RMK A01 T00471006  RH  068%=      5-min Rain = 0
KHA2 141539Z 03007KT 05/M00 A3039 RMK A01 T00481004  RH  069%=      5-min Rain = 0
KHA2 141540Z 05008KT 05/M00 A3039 RMK A01 T00501002  RH  069%=      5-min Rain = 0
KHA2 141541Z 06008KT 05/M00 A3039 RMK A01 T00521004  RH  067%=      5-min Rain = 0
KHA2 141542Z 03006KT 05/M00 A3039 RMK A01 T00531003  RH  067%=      5-min Rain = 0
KHA2 141543Z 04008KT 05/M00 A3039 RMK A01 T00541003  RH  067%=      5-min Rain = 0
KHA2 141544Z 04009KT 05/M00 A3039 RMK A01 T00531004  RH  066%=      5-min Rain = 0
KHA2 141545Z 04010KT 05/M00 A3039 RMK A01 T00521004  RH  067%=      5-min Rain = 0
KHA2 141546Z 05009KT 05/M00 A3039 RMK A01 T00521004  RH  067%=      5-min Rain = 0
KHA2 141547Z 04008KT 05/M01 A3039 RMK A01 T00521005  RH  067%=      5-min Rain = 0
KHA2 141548Z 03009KT 05/M00 A3039 RMK A01 T00511004  RH  067%=      5-min Rain = 0
KHA2 141549Z 04010KT 05/M00 A304 RMK A01 T00521004  RH  067%=      5-min Rain = 0
KHA2 141550Z 04010KT 05/M00 A304 RMK A01 T00521004  RH  067%=      5-min Rain = 0
KHA2 141551Z 03009KT 05/M01 A304 RMK A01 T00521005  RH  067%=      5-min Rain = 0
KHA2 141552Z 04008KT 05/M00 A304 RMK A01 T00521003  RH  067%=      5-min Rain = 0
KHA2 141553Z 05007KT 05/M00 A304 RMK A01 T00541003  RH  067%=      5-min Rain = 0
KHA2 141554Z 04007KT 06/M00 A304 RMK A01 T00551003  RH  066%=      5-min Rain = 0
KHA2 141555Z 04007KT 06/M00 A304 RMK A01 T00551003  RH  066%=      5-min Rain = 0
KHA2 141556Z 04009KT 06/M00 A304 RMK A01 T00561002  RH  066%=      5-min Rain = 0
KHA2 141557Z 07010KT 06/M00 A304 RMK A01 T00571002  RH  066%=      5-min Rain = 0
KHA2 141558Z 04009KT 06/M00 A304 RMK A01 T00581002  RH  066%=      5-min Rain = 0
KHA2 141559Z 03008KT 06/M00 A304 RMK A01 T00581003  RH  065%=      5-min Rain = 0
KHA2 141600Z 04009KT 06/M00 A304 RMK A01 T00571003  RH  066%=      5-min Rain = 0
KHA2 141601Z 03011KT 06/M00 A304 RMK A01 T00581002  RH  065%=      5-min Rain = 0
KHA2 141602Z 04012G17KT 06/M00 A304 RMK A01 T00581002  RH  065%=      5-min Rain = 0
KHA2 141603Z 05015KT 06/M00 A304 RMK A01 T00581002  RH  065%=      5-min Rain = 0
KHA2 141604Z 05013KT 06/M00 A304 RMK A01 T00581003  RH  065%=      5-min Rain = 0
KHA2 141605Z 04013KT 06/M00 A304 RMK A01 T00591002  RH  065%=      5-min Rain = 0
KHA2 141606Z 06013KT 06/M00 A304 RMK A01 T00591002  RH  065%=      5-min Rain = 0
KHA2 141607Z 05012KT 06/M00 A304 RMK A01 T00601001  RH  065%=      5-min Rain = 0
KHA2 141608Z 06012KT 06/00 A304 RMK A01 T006200-0  RH  064%=      5-min Rain = 0
KHA2 141609Z 05013KT 06/M00 A304 RMK A01 T00631001  RH  064%=      5-min Rain = 0
KHA2 141610Z 05012KT 06/M00 A304 RMK A01 T00621002  RH  064%=      5-min Rain = 0
KHA2 141611Z 05012KT 06/M00 A304 RMK A01 T00621002  RH  064%=      5-min Rain = 0
KHA2 141612Z 05012KT 06/M00 A304 RMK A01 T00611002  RH  064%=      5-min Rain = 0
KHA2 141613Z 05012KT 06/M00 A304 RMK A01 T00621002  RH  064%=      5-min Rain = 0
KHA2 141614Z 05014KT 06/M00 A304 RMK A01 T00621002  RH  064%=      5-min Rain = 0
KHA2 141615Z 05010KT 06/M00 A304 RMK A01 T00621002  RH  063%=      5-min Rain = 0
KHA2 141616Z 05012KT 06/M00 A304 RMK A01 T00621001  RH  064%=      5-min Rain = 0
KHA2 141617Z 05011KT 06/M00 A304 RMK A01 T00631001  RH  063%=      5-min Rain = 0
KHA2 141618Z 06010KT 06/M00 A304 RMK A01 T00631002  RH  063%=      5-min Rain = 0
KHA2 141619Z 05012KT 07/00 A304 RMK A01 T006500-0  RH  063%=      5-min Rain = 0
KHA2 141620Z 06013KT 07/00 A3041 RMK A01 T00660000  RH  063%=      5-min Rain = 0
KHA2 141621Z 06012KT 07/M00 A3041 RMK A01 T00661001  RH  062%=      5-min Rain = 0
KHA2 141622Z 05013KT 07/M00 A3041 RMK A01 T00661002  RH  062%=      5-min Rain = 0
KHA2 141623Z 05011KT 07/M00 A3041 RMK A01 T00651003  RH  062%=      5-min Rain = 0
KHA2 141624Z 05014KT 06/M00 A3041 RMK A01 T00641003  RH  063%=      5-min Rain = 0
KHA2 141625Z 05013KT 06/M00 A3041 RMK A01 T00641002  RH  063%=      5-min Rain = 0
KHA2 141626Z 06012KT 07/00 A3041 RMK A01 T00660000  RH  063%=      5-min Rain = 0
KHA2 141627Z 05013KT 07/M00 A3041 RMK A01 T00681001  RH  061%=      5-min Rain = 0
KHA2 141628Z 05015KT 07/M00 A3041 RMK A01 T00671002  RH  061%=      5-min Rain = 0
KHA2 141629Z 05013KT 07/M00 A3041 RMK A01 T00661003  RH  061%=      5-min Rain = 0
KHA2 141630Z 04013KT 07/M00 A3041 RMK A01 T00661002  RH  062%=      5-min Rain = 0
KHA2 141631Z 04012KT 07/M00 A3041 RMK A01 T00681001  RH  061%=      5-min Rain = 0
KHA2 141632Z 05010KT 07/M00 A3041 RMK A01 T00671003  RH  061%=      5-min Rain = 0
KHA2 141633Z 05013KT 07/M00 A3041 RMK A01 T00681002  RH  061%=      5-min Rain = 0
KHA2 141634Z 05012KT 07/M00 A3041 RMK A01 T00691004  RH  060%=      5-min Rain = 0
KHA2 141635Z 04012KT 07/M00 A3041 RMK A01 T00681004  RH  060%=      5-min Rain = 0
KHA2 141636Z 05012KT 07/M00 A3041 RMK A01 T00691003  RH  060%=      5-min Rain = 0
KHA2 141637Z 05012KT 07/M00 A3041 RMK A01 T00691004  RH  060%=      5-min Rain = 0
KHA2 141638Z 05013KT 07/M00 A3041 RMK A01 T00681004  RH  060%=      5-min Rain = 0
KHA2 141639Z 06012KT 07/M00 A3041 RMK A01 T00691003  RH  060%=      5-min Rain = 0
KHA2 141640Z 05012KT 07/M00 A3041 RMK A01 T00701004  RH  059%=      5-min Rain = 0
KHA2 141641Z 04010KT 07/M00 A3041 RMK A01 T00711003  RH  059%=      5-min Rain = 0
KHA2 141642Z 05010KT 07/M00 A3041 RMK A01 T00731002  RH  059%=      5-min Rain = 0
KHA2 141643Z 05012KT 07/M00 A3041 RMK A01 T00731003  RH  058%=      5-min Rain = 0
KHA2 141644Z 05013KT 07/M01 A3041 RMK A01 T00721006  RH  057%=      5-min Rain = 0
KHA2 141645Z 06013KT 07/M01 A3041 RMK A01 T00711006  RH  058%=      5-min Rain = 0
KHA2 141646Z 06011KT 07/M01 A3041 RMK A01 T00701006  RH  058%=      5-min Rain = 0
KHA2 141647Z 05013KT 07/M01 A3041 RMK A01 T00711006  RH  058%=      5-min Rain = 0
KHA2 141648Z 05011KT 07/M01 A3041 RMK A01 T00741005  RH  057%=      5-min Rain = 0
KHA2 141649Z 05012KT 08/M01 A3041 RMK A01 T00751006  RH  057%=      5-min Rain = 0
KHA2 141650Z 05010KT 07/M01 A3041 RMK A01 T00741007  RH  057%=      5-min Rain = 0
KHA2 141651Z 05011KT 07/M01 A3041 RMK A01 T00741007  RH  056%=      5-min Rain = 0
KHA2 141652Z 04010KT 07/M01 A3041 RMK A01 T00721009  RH  056%=      5-min Rain = 0
KHA2 141653Z 05013KT 07/M01 A3041 RMK A01 T00721009  RH  056%=      5-min Rain = 0
KHA2 141654Z 05011KT 07/M01 A3041 RMK A01 T00731010  RH  055%=      5-min Rain = 0
KHA2 141655Z 06010KT 07/M01 A3041 RMK A01 T00741009  RH  056%=      5-min Rain = 0
KHA2 141656Z 07011KT 07/M01 A3041 RMK A01 T00741007  RH  056%=      5-min Rain = 0
KHA2 141657Z 05010KT 07/M01 A3041 RMK A01 T00741008  RH  056%=      5-min Rain = 0
KHA2 141658Z 04010KT 08/M01 A3041 RMK A01 T00751007  RH  056%=      5-min Rain = 0
KHA2 141659Z 04009KT 08/M01 A3041 RMK A01 T00761007  RH  055%=      5-min Rain = 0
KHA2 141700Z 04009KT 08/M01 A3041 RMK A01 T00771007  RH  055%=      5-min Rain = 0
KHA2 141701Z 05010KT 08/M01 A3041 RMK A01 T00771007  RH  055%=      5-min Rain = 0
KHA2 141702Z 06008KT 08/M01 A3041 RMK A01 T00771008  RH  055%=      5-min Rain = 0
KHA2 141703Z 06009KT 08/M01 A3041 RMK A01 T00791007  RH  055%=      5-min Rain = 0
KHA2 141704Z 05010KT 08/M01 A3041 RMK A01 T00791006  RH  055%=      5-min Rain = 0
KHA2 141705Z 06011KT 08/M01 A3041 RMK A01 T00801008  RH  054%=      5-min Rain = 0
KHA2 141706Z 06011KT 08/M01 A3041 RMK A01 T00801010  RH  053%=      5-min Rain = 0
KHA2 141707Z 06010KT 08/M01 A3041 RMK A01 T00791010  RH  053%=      5-min Rain = 0
KHA2 141708Z 06009KT 08/M01 A3041 RMK A01 T00791010  RH  053%=      5-min Rain = 0
KHA2 141709Z 06011KT 08/M01 A3041 RMK A01 T00791011  RH  053%=      5-min Rain = 0
KHA2 141710Z 06011KT 08/M01 A3041 RMK A01 T00791012  RH  053%=      5-min Rain = 0
KHA2 141711Z 07010KT 08/M01 A3041 RMK A01 T00791010  RH  053%=      5-min Rain = 0
KHA2 141712Z 07009KT 08/M01 A3041 RMK A01 T00811009  RH  053%=      5-min Rain = 0
KHA2 141713Z 05009KT 08/M01 A3041 RMK A01 T00801009  RH  053%=      5-min Rain = 0
KHA2 141714Z 04009KT 08/M01 A3041 RMK A01 T00801008  RH  054%=      5-min Rain = 0
KHA2 141715Z 04010KT 08/M01 A3041 RMK A01 T00801007  RH  054%=      5-min Rain = 0
KHA2 141716Z 05009KT 08/M01 A3041 RMK A01 T00801007  RH  054%=      5-min Rain = 0
KHA2 141717Z 05008KT 08/M01 A3041 RMK A01 T00801008  RH  054%=      5-min Rain = 0
KHA2 141718Z 06009KT 08/M01 A3041 RMK A01 T00781008  RH  054%=      5-min Rain = 0
KHA2 141719Z 06009KT 08/M01 A3041 RMK A01 T00781007  RH  055%=      5-min Rain = 0
KHA2 141720Z 06008KT 08/M01 A3041 RMK A01 T00791007  RH  055%=      5-min Rain = 0
KHA2 141721Z 07009KT 08/M00 A3041 RMK A01 T00811004  RH  055%=      5-min Rain = 0
KHA2 141722Z 07009KT 08/M01 A3041 RMK A01 T00801006  RH  054%=      5-min Rain = 0
KHA2 141723Z 06008KT 08/M01 A3041 RMK A01 T00801006  RH  055%=      5-min Rain = 0
KHA2 141724Z 06006KT 08/M01 A3041 RMK A01 T00791007  RH  054%=      5-min Rain = 0
KHA2 141725Z 04009KT 08/M01 A3041 RMK A01 T00791006  RH  055%=      5-min Rain = 0
KHA2 141726Z 02008KT 08/M00 A3041 RMK A01 T00821004  RH  055%=      5-min Rain = 0
KHA2 141727Z 02008KT 08/M01 A3041 RMK A01 T00821006  RH  054%=      5-min Rain = 0
KHA2 141728Z 02010KT 08/M01 A3041 RMK A01 T00801006  RH  054%=      5-min Rain = 0
KHA2 141729Z 02009KT 08/M01 A3041 RMK A01 T00791007  RH  054%=      5-min Rain = 0
KHA2 141730Z 04007KT 08/M01 A3041 RMK A01 T00791007  RH  055%=      5-min Rain = 0
KHA2 141731Z 06009KT 08/M01 A3041 RMK A01 T00791005  RH  055%=      5-min Rain = 0
KHA2 141732Z 06006KT 08/M00 A3041 RMK A01 T00831004  RH  054%=      5-min Rain = 0
KHA2 141733Z 05006KT 08/M01 A3041 RMK A01 T00831007  RH  053%=      5-min Rain = 0
KHA2 141734Z 03008KT 08/M01 A3041 RMK A01 T00811007  RH  054%=      5-min Rain = 0
KHA2 141735Z 04008KT 08/M01 A3041 RMK A01 T00811006  RH  054%=      5-min Rain = 0
KHA2 141736Z 02006KT 08/M01 A3041 RMK A01 T00821005  RH  054%=      5-min Rain = 0
KHA2 141737Z 03006KT 08/M00 A3041 RMK A01 T00841004  RH  054%=      5-min Rain = 0
KHA2 141738Z 04005KT 08/M01 A3041 RMK A01 T00841006  RH  053%=      5-min Rain = 0
KHA2 141739Z 03008KT 08/M01 A3041 RMK A01 T00831006  RH  053%=      5-min Rain = 0
KHA2 141740Z 02008KT 08/M01 A3041 RMK A01 T00831005  RH  054%=      5-min Rain = 0
KHA2 141741Z 04008KT 09/M00 A3041 RMK A01 T00871002  RH  054%=      5-min Rain = 0
KHA2 141742Z 06008KT 09/M00 A3041 RMK A01 T00901003  RH  052%=      5-min Rain = 0
KHA2 141743Z 03011KT 09/M00 A3041 RMK A01 T00911003  RH  052%=      5-min Rain = 0
KHA2 141744Z 05009KT 09/M01 A3041 RMK A01 T00891007  RH  051%=      5-min Rain = 0
KHA2 141745Z 04008KT 09/M01 A3041 RMK A01 T00861007  RH  052%=      5-min Rain = 0
KHA2 141746Z 04009KT 09/M01 A3041 RMK A01 T00861005  RH  053%=      5-min Rain = 0
KHA2 141747Z 04009KT 09/M00 A3041 RMK A01 T00881003  RH  053%=      5-min Rain = 0
KHA2 141748Z 03007KT 09/M01 A3041 RMK A01 T00871006  RH  052%=      5-min Rain = 0
KHA2 141749Z 04005KT 09/M01 A3041 RMK A01 T00851007  RH  052%=      5-min Rain = 0
KHA2 141750Z 03008KT 08/M01 A3041 RMK A01 T00841006  RH  053%=      5-min Rain = 0
KHA2 141751Z 03007KT 08/M01 A3041 RMK A01 T00841006  RH  053%=      5-min Rain = 0
KHA2 141752Z 04008KT 09/M00 A3041 RMK A01 T00851004  RH  053%=      5-min Rain = 0
KHA2 141753Z 02007KT 09/M01 A304 RMK A01 T00851005  RH  053%=      5-min Rain = 0
KHA2 141754Z 03006KT 09/M00 A304 RMK A01 T00871003  RH  053%=      5-min Rain = 0
KHA2 141755Z 04008KT 09/M00 A304 RMK A01 T00881002  RH  053%=      5-min Rain = 0
KHA2 141756Z 05010KT 09/M00 A304 RMK A01 T00921001  RH  052%=      5-min Rain = 0
KHA2 141757Z 06009KT 09/00 A304 RMK A01 T009300-0  RH  052%=      5-min Rain = 0
KHA2 141758Z 06011KT 10/M00 A304 RMK A01 T00971001  RH  050%=      5-min Rain = 0
KHA2 141759Z 06009KT 09/M01 A304 RMK A01 T00931007  RH  050%=      5-min Rain = 0
KHA2 141800Z 07009KT 09/M01 A304 RMK A01 T00901005  RH  051%=      5-min Rain = 0
KHA2 141801Z 08006KT 09/M01 A304 RMK A01 T00891005  RH  052%=      5-min Rain = 0
KHA2 141802Z 07005KT 09/M00 A304 RMK A01 T00891004  RH  052%=      5-min Rain = 0
KHA2 141803Z 09007KT 09/M01 A304 RMK A01 T00891005  RH  052%=      5-min Rain = 0
KHA2 141804Z 04007KT 09/M00 A304 RMK A01 T00891004  RH  052%=      5-min Rain = 0
KHA2 141805Z 04005KT 09/M00 A304 RMK A01 T00901003  RH  052%=      5-min Rain = 0
KHA2 141806Z 04006KT 09/M00 A304 RMK A01 T00901002  RH  052%=      5-min Rain = 0
KHA2 141807Z 02009KT 09/00 A304 RMK A01 T009200-0  RH  052%=      5-min Rain = 0
KHA2 141808Z 02009KT 09/M01 A304 RMK A01 T00911005  RH  051%=      5-min Rain = 0
KHA2 141809Z 02008KT 09/M01 A304 RMK A01 T00871006  RH  052%=      5-min Rain = 0
KHA2 141810Z 02005KT 09/M01 A304 RMK A01 T00861005  RH  053%=      5-min Rain = 0
KHA2 141811Z 03010KT 09/M00 A304 RMK A01 T00891001  RH  053%=      5-min Rain = 0
KHA2 141812Z 04009KT 09/M00 A304 RMK A01 T00911004  RH  051%=      5-min Rain = 0
KHA2 141813Z 04008G13KT 09/M00 A304 RMK A01 T00921004  RH  051%=      5-min Rain = 0
KHA2 141814Z 03011KT 10/M00 A304 RMK A01 T00951002  RH  051%=      5-min Rain = 0
KHA2 141815Z 03010KT 10/M00 A304 RMK A01 T00951004  RH  050%=      5-min Rain = 0
KHA2 141816Z 05008KT 09/M01 A304 RMK A01 T00931005  RH  050%=      5-min Rain = 0
KHA2 141817Z 06006KT 09/M01 A304 RMK A01 T00911007  RH  050%=      5-min Rain = 0
KHA2 141818Z 06005KT 09/M01 A3039 RMK A01 T00891007  RH  051%=      5-min Rain = 0
KHA2 141819Z 02008KT 09/M01 A3039 RMK A01 T00901005  RH  051%=      5-min Rain = 0
KHA2 141820Z 02007KT 09/M01 A3039 RMK A01 T00921005  RH  051%=      5-min Rain = 0
KHA2 141821Z 04007KT 09/M01 A3039 RMK A01 T00921007  RH  050%=      5-min Rain = 0
KHA2 141822Z 04011KT 10/M00 A3039 RMK A01 T00951003  RH  050%=      5-min Rain = 0
KHA2 141823Z 04010KT 10/M01 A3039 RMK A01 T00971005  RH  049%=      5-min Rain = 0
KHA2 141824Z 04007KT 10/M01 A3039 RMK A01 T00961007  RH  049%=      5-min Rain = 0
KHA2 141825Z 05007KT 09/M01 A3039 RMK A01 T00931007  RH  050%=      5-min Rain = 0
KHA2 141826Z 03009G14KT 10/M00 A3039 RMK A01 T00951003  RH  050%=      5-min Rain = 0
KHA2 141827Z 03012KT 10/M00 A3039 RMK A01 T00991003  RH  049%=      5-min Rain = 0
KHA2 141828Z 04010KT 10/M01 A3039 RMK A01 T00981008  RH  048%=      5-min Rain = 0
KHA2 141829Z 03012KT 10/M01 A3039 RMK A01 T00971006  RH  049%=      5-min Rain = 0
KHA2 141830Z 04011KT 10/M01 A3039 RMK A01 T01001005  RH  048%=      5-min Rain = 0
KHA2 141831Z 03009KT 10/M01 A3039 RMK A01 T00991008  RH  047%=      5-min Rain = 0
KHA2 141832Z 04009KT 10/M01 A3039 RMK A01 T00961009  RH  048%=      5-min Rain = 0
KHA2 141833Z 03007KT 10/M01 A3039 RMK A01 T00961005  RH  049%=      5-min Rain = 0
KHA2 141834Z 03007KT 10/M00 A3039 RMK A01 T01011001  RH  049%=      5-min Rain = 0
KHA2 141835Z 04006KT 10/M00 A3039 RMK A01 T01021004  RH  048%=      5-min Rain = 0
KHA2 141836Z 05006KT 10/M00 A3039 RMK A01 T01021003  RH  048%=      5-min Rain = 0
KHA2 141837Z 03010KT 10/M00 A3039 RMK A01 T01031004  RH  048%=      5-min Rain = 0
KHA2 141838Z 03007KT 10/M00 A3039 RMK A01 T01031004  RH  048%=      5-min Rain = 0
KHA2 141839Z 04008KT 10/M00 A3039 RMK A01 T01031004  RH  047%=      5-min Rain = 0
KHA2 141840Z 04009KT 10/M00 A3039 RMK A01 T01031004  RH  048%=      5-min Rain = 0
KHA2 141841Z 03006KT 10/M00 A3039 RMK A01 T01031004  RH  047%=      5-min Rain = 0
KHA2 141842Z 03007KT 10/M01 A3038 RMK A01 T01011006  RH  047%=      5-min Rain = 0
KHA2 141843Z 04007KT 10/M01 A3038 RMK A01 T01001005  RH  048%=      5-min Rain = 0
KHA2 141844Z 03010KT 10/M01 A3038 RMK A01 T01001005  RH  048%=      5-min Rain = 0
KHA2 141845Z 01012KT 10/M01 A3038 RMK A01 T01021006  RH  047%=      5-min Rain = 0
KHA2 141846Z 03010KT 10/M01 A3038 RMK A01 T01031010  RH  045%=      5-min Rain = 0
KHA2 141847Z 05009KT 10/M01 A3038 RMK A01 T01011009  RH  046%=      5-min Rain = 0
KHA2 141848Z 05009KT 10/M01 A3038 RMK A01 T01031008  RH  046%=      5-min Rain = 0
KHA2 141849Z 06009KT 10/M01 A3038 RMK A01 T01031008  RH  046%=      5-min Rain = 0
KHA2 141850Z 07007KT 11/M01 A3038 RMK A01 T01051006  RH  046%=      5-min Rain = 0
KHA2 141851Z 06009KT 11/M01 A3038 RMK A01 T01061006  RH  046%=      5-min Rain = 0
KHA2 141852Z 06009KT 11/M01 A3038 RMK A01 T01061008  RH  045%=      5-min Rain = 0
KHA2 141853Z 05010KT 10/M01 A3038 RMK A01 T01041007  RH  046%=      5-min Rain = 0
KHA2 141854Z 05009KT 11/M01 A3038 RMK A01 T01051006  RH  046%=      5-min Rain = 0
KHA2 141855Z 04006KT 10/M01 A3038 RMK A01 T01041008  RH  046%=      5-min Rain = 0
KHA2 141856Z 06006KT 10/M01 A3038 RMK A01 T01031007  RH  046%=      5-min Rain = 0
KHA2 141857Z 05006KT 10/M01 A3038 RMK A01 T01021008  RH  046%=      5-min Rain = 0
KHA2 141858Z 08008KT 10/M01 A3038 RMK A01 T01041007  RH  046%=      5-min Rain = 0
KHA2 141859Z 08008KT 10/M01 A3038 RMK A01 T01041008  RH  046%=      5-min Rain = 0
KHA2 141900Z 08008KT 11/M00 A3038 RMK A01 T01051004  RH  047%=      5-min Rain = 0
KHA2 141901Z 06008KT 11/M01 A3038 RMK A01 T01061006  RH  046%=      5-min Rain = 0
KHA2 141902Z 03008KT 11/M01 A3038 RMK A01 T01051008  RH  045%=      5-min Rain = 0
KHA2 141903Z 03010KT 11/M01 A3038 RMK A01 T01051008  RH  045%=      5-min Rain = 0
KHA2 141904Z 04008KT 11/M01 A3038 RMK A01 T01061007  RH  045%=      5-min Rain = 0
KHA2 141905Z 06012KT 11/M01 A3038 RMK A01 T01081005  RH  045%=      5-min Rain = 0
KHA2 141906Z 06011KT 11/M01 A3038 RMK A01 T01081008  RH  045%=      5-min Rain = 0
KHA2 141907Z 06010KT 11/M01 A3038 RMK A01 T01061009  RH  045%=      5-min Rain = 0
KHA2 141908Z 05007KT 11/M01 A3038 RMK A01 T01051011  RH  045%=      5-min Rain = 0
KHA2 141909Z 07009KT 10/M01 A3038 RMK A01 T01041008  RH  046%=      5-min Rain = 0
KHA2 141910Z 07008KT 11/M01 A3038 RMK A01 T01061007  RH  046%=      5-min Rain = 0
KHA2 141911Z 06007KT 10/M01 A3038 RMK A01 T01041010  RH  045%=      5-min Rain = 0
KHA2 141912Z 06007KT 10/M01 A3038 RMK A01 T01031008  RH  046%=      5-min Rain = 0
KHA2 141913Z 07006KT 10/M01 A3038 RMK A01 T01041008  RH  046%=      5-min Rain = 0
KHA2 141914Z 12003KT 10/M01 A3037 RMK A01 T01041009  RH  045%=      5-min Rain = 0
KHA2 141915Z 10002KT 10/M01 A3037 RMK A01 T01031010  RH  045%=      5-min Rain = 0
KHA2 141916Z 06005KT 11/M01 A3037 RMK A01 T01061005  RH  046%=      5-min Rain = 0
KHA2 141917Z 03010KT 11/M01 A3037 RMK A01 T01071007  RH  045%=      5-min Rain = 0
KHA2 141918Z 07011KT 11/M01 A3037 RMK A01 T01091005  RH  045%=      5-min Rain = 0
KHA2 141919Z 07011KT 11/M01 A3037 RMK A01 T01091007  RH  045%=      5-min Rain = 0
KHA2 141920Z 03009KT 11/M01 A3037 RMK A01 T01091007  RH  045%=      5-min Rain = 0
KHA2 141921Z 06008KT 11/M01 A3037 RMK A01 T01081010  RH  044%=      5-min Rain = 0
KHA2 141922Z 04007KT 11/M01 A3037 RMK A01 T01061012  RH  044%=      5-min Rain = 0
KHA2 141923Z 03008KT 11/M01 A3037 RMK A01 T01061009  RH  045%=      5-min Rain = 0
KHA2 141924Z 04008KT 11/M01 A3037 RMK A01 T01071009  RH  045%=      5-min Rain = 0
KHA2 141925Z 05007KT 11/M01 A3037 RMK A01 T01071009  RH  045%=      5-min Rain = 0
KHA2 141926Z 07007KT 11/M01 A3037 RMK A01 T01071008  RH  045%=      5-min Rain = 0
KHA2 141927Z 06008KT 11/M01 A3037 RMK A01 T01081008  RH  045%=      5-min Rain = 0
KHA2 141928Z 07009KT 11/M01 A3037 RMK A01 T01101006  RH  045%=      5-min Rain = 0
KHA2 141929Z 04007KT 11/M01 A3037 RMK A01 T01131006  RH  044%=      5-min Rain = 0
KHA2 141930Z 05006KT 11/M01 A3037 RMK A01 T01131009  RH  043%=      5-min Rain = 0
KHA2 141931Z 07007KT 11/M01 A3037 RMK A01 T01121009  RH  043%=      5-min Rain = 0
KHA2 141932Z 08009KT 11/M01 A3037 RMK A01 T01111006  RH  044%=      5-min Rain = 0
KHA2 141933Z 08009KT 11/M01 A3037 RMK A01 T01121005  RH  044%=      5-min Rain = 0
KHA2 141934Z 07009KT 11/M01 A3037 RMK A01 T01131007  RH  043%=      5-min Rain = 0
KHA2 141935Z 06009KT 11/M01 A3037 RMK A01 T01131008  RH  043%=      5-min Rain = 0
KHA2 141936Z 03009KT 11/M01 A3037 RMK A01 T01121009  RH  043%=      5-min Rain = 0
KHA2 141937Z 00006KT 11/M01 A3037 RMK A01 T01101012  RH  043%=      5-min Rain = 0
KHA2 141938Z 04004KT 11/M01 A3037 RMK A01 T01071013  RH  043%=      5-min Rain = 0
KHA2 141939Z 06005KT 11/M01 A3037 RMK A01 T01061011  RH  044%=      5-min Rain = 0
KHA2 141940Z 05007KT 11/M01 A3037 RMK A01 T01071010  RH  044%=      5-min Rain = 0
KHA2 141941Z 04006KT 11/M01 A3037 RMK A01 T01101008  RH  044%=      5-min Rain = 0
KHA2 141942Z 03007KT 11/M01 A3037 RMK A01 T01131010  RH  042%=      5-min Rain = 0
KHA2 141943Z 05009KT 11/M01 A3037 RMK A01 T01141009  RH  042%=      5-min Rain = 0
KHA2 141944Z 06007KT 12/M01 A3037 RMK A01 T01151011  RH  042%=      5-min Rain = 0
KHA2 141945Z 04008KT 11/M01 A3037 RMK A01 T01141013  RH  041%=      5-min Rain = 0
KHA2 141946Z 03004KT 11/M01 A3037 RMK A01 T01101014  RH  042%=      5-min Rain = 0
KHA2 141947Z 03008KT 11/M01 A3037 RMK A01 T01101011  RH  043%=      5-min Rain = 0
KHA2 141948Z 03008KT 11/M01 A3037 RMK A01 T01131008  RH  043%=      5-min Rain = 0
KHA2 141949Z 02009KT 11/M01 A3036 RMK A01 T01141009  RH  043%=      5-min Rain = 0
KHA2 141950Z 06010KT 11/M01 A3036 RMK A01 T01141008  RH  043%=      5-min Rain = 0
KHA2 141951Z 07010KT 12/M01 A3037 RMK A01 T01151009  RH  042%=      5-min Rain = 0
KHA2 141952Z 07009KT 11/M01 A3037 RMK A01 T01121011  RH  042%=      5-min Rain = 0
KHA2 141953Z 08007KT 11/M01 A3037 RMK A01 T01131009  RH  043%=      5-min Rain = 0
KHA2 141954Z 08006KT 11/M01 A3036 RMK A01 T01111010  RH  043%=      5-min Rain = 0
KHA2 141955Z 08007KT 11/M01 A3037 RMK A01 T01111011  RH  043%=      5-min Rain = 0
KHA2 141956Z 07006KT 11/M01 A3036 RMK A01 T01091011  RH  043%=      5-min Rain = 0
KHA2 141957Z 08007KT 11/M01 A3036 RMK A01 T01121008  RH  043%=      5-min Rain = 0
KHA2 141958Z 07010KT 11/M01 A3036 RMK A01 T01131009  RH  043%=      5-min Rain = 0
KHA2 141959Z 07008KT 11/M01 A3036 RMK A01 T01141010  RH  042%=      5-min Rain = 0
KHA2 142000Z 07010KT 11/M01 A3036 RMK A01 T01141011  RH  042%=      5-min Rain = 0
KHA2 142001Z 08009KT 11/M01 A3036 RMK A01 T01121012  RH  042%=      5-min Rain = 0
KHA2 142002Z 09008KT 11/M01 A3036 RMK A01 T01121009  RH  043%=      5-min Rain = 0
KHA2 142003Z 09007KT 11/M01 A3036 RMK A01 T01131011  RH  042%=      5-min Rain = 0
KHA2 142004Z 08008KT 11/M01 A3036 RMK A01 T01121010  RH  043%=      5-min Rain = 0
KHA2 142005Z 07009KT 11/M01 A3036 RMK A01 T01131009  RH  043%=      5-min Rain = 0
KHA2 142006Z 07008KT 11/M01 A3036 RMK A01 T01141007  RH  043%=      5-min Rain = 0
KHA2 142007Z 08006KT 11/M01 A3036 RMK A01 T01141010  RH  042%=      5-min Rain = 0
KHA2 142008Z 07007KT 12/M01 A3036 RMK A01 T01151005  RH  043%=      5-min Rain = 0
KHA2 142009Z 07009KT 12/M01 A3036 RMK A01 T01171007  RH  042%=      5-min Rain = 0
KHA2 142010Z 08007KT 12/M01 A3036 RMK A01 T01151010  RH  042%=      5-min Rain = 0
KHA2 142011Z 07006KT 11/M01 A3036 RMK A01 T01131009  RH  042%=      5-min Rain = 0
KHA2 142012Z 07004KT 11/M01 A3036 RMK A01 T01131011  RH  042%=      5-min Rain = 0
KHA2 142013Z 05003KT 11/M01 A3036 RMK A01 T01111012  RH  042%=      5-min Rain = 0
KHA2 142014Z 07005KT 11/M01 A3036 RMK A01 T01121009  RH  043%=      5-min Rain = 0
KHA2 142015Z 06008KT 11/M01 A3036 RMK A01 T01141007  RH  043%=      5-min Rain = 0
KHA2 142016Z 05006KT 11/M01 A3036 RMK A01 T01141011  RH  042%=      5-min Rain = 0
KHA2 142017Z 06003KT 11/M01 A3036 RMK A01 T01131010  RH  042%=      5-min Rain = 0
KHA2 142018Z 07005KT 12/M01 A3036 RMK A01 T01151007  RH  043%=      5-min Rain = 0
KHA2 142019Z 08006KT 12/M01 A3036 RMK A01 T01161009  RH  042%=      5-min Rain = 0
KHA2 142020Z 10007KT 12/M01 A3036 RMK A01 T01161009  RH  042%=      5-min Rain = 0
KHA2 142021Z 09009KT 12/M01 A3036 RMK A01 T01161008  RH  042%=      5-min Rain = 0
KHA2 142022Z 09007KT 12/M01 A3036 RMK A01 T01151010  RH  042%=      5-min Rain = 0
KHA2 142023Z 07007KT 11/M01 A3036 RMK A01 T01141010  RH  042%=      5-min Rain = 0
KHA2 142024Z 07006KT 12/M01 A3036 RMK A01 T01151008  RH  042%=      5-min Rain = 0
KHA2 142025Z 08005KT 12/M01 A3036 RMK A01 T01171008  RH  042%=      5-min Rain = 0
KHA2 142026Z 09006KT 12/M01 A3036 RMK A01 T01181008  RH  042%=      5-min Rain = 0
KHA2 142027Z 07006KT 12/M01 A3036 RMK A01 T01171010  RH  041%=      5-min Rain = 0
KHA2 142028Z 07010KT 12/M01 A3036 RMK A01 T01161009  RH  042%=      5-min Rain = 0
KHA2 142029Z 06010KT 12/M01 A3036 RMK A01 T01161011  RH  041%=      5-min Rain = 0
KHA2 142030Z 05009KT 11/M01 A3036 RMK A01 T01141012  RH  042%=      5-min Rain = 0
KHA2 142031Z 04009KT 11/M01 A3036 RMK A01 T01141012  RH  042%=      5-min Rain = 0
KHA2 142032Z 05006KT 11/M01 A3036 RMK A01 T01141011  RH  042%=      5-min Rain = 0
KHA2 142033Z 07006KT 12/M01 A3036 RMK A01 T01171008  RH  042%=      5-min Rain = 0
KHA2 142034Z 06008KT 12/M01 A3035 RMK A01 T01181010  RH  041%=      5-min Rain = 0
KHA2 142035Z 07006KT 12/M01 A3035 RMK A01 T01181012  RH  040%=      5-min Rain = 0
KHA2 142036Z 06005KT 12/M01 A3035 RMK A01 T01171012  RH  041%=      5-min Rain = 0
KHA2 142037Z 07005KT 12/M01 A3035 RMK A01 T01161011  RH  041%=      5-min Rain = 0
KHA2 142038Z 07005KT 12/M01 A3035 RMK A01 T01161012  RH  041%=      5-min Rain = 0
KHA2 142039Z 03005KT 12/M01 A3035 RMK A01 T01151011  RH  042%=      5-min Rain = 0
KHA2 142040Z 03004KT 12/M01 A3035 RMK A01 T01151011  RH  042%=      5-min Rain = 0
KHA2 142041Z 03004KT 11/M01 A3035 RMK A01 T01141012  RH  042%=      5-min Rain = 0
KHA2 142042Z 02005KT 11/M01 A3035 RMK A01 T01141010  RH  042%=      5-min Rain = 0
KHA2 142043Z 01006KT 12/M01 A3035 RMK A01 T01171009  RH  042%=      5-min Rain = 0
KHA2 142044Z 04005KT 12/M01 A3035 RMK A01 T01181009  RH  042%=      5-min Rain = 0
KHA2 142045Z 06006KT 12/M01 A3035 RMK A01 T01191007  RH  042%=      5-min Rain = 0
KHA2 142046Z 07004KT 12/M01 A3035 RMK A01 T01191009  RH  041%=      5-min Rain = 0
KHA2 142047Z 08003KT 12/M01 A3035 RMK A01 T01181011  RH  041%=      5-min Rain = 0
KHA2 142048Z 07003KT 12/M01 A3035 RMK A01 T01171010  RH  041%=      5-min Rain = 0
KHA2 142049Z 05001KT 12/M01 A3035 RMK A01 T01171010  RH  041%=      5-min Rain = 0
KHA2 142050Z 07003KT 12/M01 A3035 RMK A01 T01181010  RH  041%=      5-min Rain = 0
KHA2 142051Z 07006KT 12/M01 A3035 RMK A01 T01191009  RH  041%=      5-min Rain = 0
KHA2 142052Z 09007KT 12/M01 A3035 RMK A01 T01201008  RH  041%=      5-min Rain = 0
KHA2 142053Z 10006KT 12/M01 A3035 RMK A01 T01191007  RH  042%=      5-min Rain = 0
KHA2 142054Z 08004KT 12/M01 A3035 RMK A01 T01171009  RH  041%=      5-min Rain = 0
KHA2 142055Z 09005KT 12/M01 A3035 RMK A01 T01171009  RH  042%=      5-min Rain = 0
KHA2 142056Z 06006KT 12/M01 A3035 RMK A01 T01171009  RH  042%=      5-min Rain = 0
KHA2 142057Z 05007KT 12/M01 A3035 RMK A01 T01181011  RH  041%=      5-min Rain = 0
KHA2 142058Z 05005KT 12/M01 A3035 RMK A01 T01171014  RH  040%=      5-min Rain = 0
KHA2 142059Z 04007KT 12/M01 A3035 RMK A01 T01171013  RH  041%=      5-min Rain = 0
KHA2 142100Z 04009KT 12/M01 A3035 RMK A01 T01181012  RH  041%=      5-min Rain = 0
KHA2 142101Z 04007KT 12/M01 A3035 RMK A01 T01171012  RH  041%=      5-min Rain = 0
KHA2 142102Z 04005KT 12/M01 A3035 RMK A01 T01171014  RH  040%=      5-min Rain = 0
KHA2 142103Z 03005KT 12/M01 A3035 RMK A01 T01161014  RH  040%=      5-min Rain = 0
KHA2 142104Z 04004KT 12/M01 A3035 RMK A01 T01161013  RH  041%=      5-min Rain = 0
KHA2 142105Z 05003KT 12/M01 A3035 RMK A01 T01171012  RH  041%=      5-min Rain = 0
KHA2 142106Z 04004KT 12/M01 A3035 RMK A01 T01191010  RH  041%=      5-min Rain = 0
KHA2 142107Z 04005KT 12/M01 A3035 RMK A01 T01201009  RH  041%=      5-min Rain = 0
KHA2 142108Z 06005KT 12/M01 A3035 RMK A01 T01211011  RH  040%=      5-min Rain = 0
KHA2 142109Z 07007KT 12/M01 A3035 RMK A01 T01191010  RH  041%=      5-min Rain = 0
KHA2 142110Z 08007KT 12/M01 A3035 RMK A01 T01181009  RH  041%=      5-min Rain = 0
KHA2 142111Z 07010KT 12/M01 A3035 RMK A01 T01171010  RH  041%=      5-min Rain = 0
KHA2 142112Z 07008KT 12/M01 A3035 RMK A01 T01171011  RH  041%=      5-min Rain = 0
KHA2 142113Z 08007KT 12/M01 A3035 RMK A01 T01161011  RH  041%=      5-min Rain = 0
KHA2 142114Z 08005KT 12/M01 A3035 RMK A01 T01161010  RH  042%=      5-min Rain = 0
KHA2 142115Z 09004KT 12/M01 A3035 RMK A01 T01161010  RH  042%=      5-min Rain = 0
KHA2 142116Z 09006KT 12/M01 A3035 RMK A01 T01171009  RH  042%=      5-min Rain = 0
KHA2 142117Z 08009KT 12/M01 A3035 RMK A01 T01181009  RH  041%=      5-min Rain = 0
KHA2 142118Z 08009KT 12/M01 A3035 RMK A01 T01181008  RH  042%=      5-min Rain = 0
KHA2 142119Z 08007KT 12/M01 A3035 RMK A01 T01171010  RH  041%=      5-min Rain = 0
KHA2 142120Z 07004KT 12/M01 A3035 RMK A01 T01161011  RH  041%=      5-min Rain = 0
KHA2 142121Z 08007KT 12/M01 A3035 RMK A01 T01171008  RH  042%=      5-min Rain = 0
KHA2 142122Z 09008KT 12/M01 A3035 RMK A01 T01181007  RH  042%=      5-min Rain = 0
KHA2 142123Z 08007KT 12/M01 A3035 RMK A01 T01201005  RH  042%=      5-min Rain = 0
KHA2 142124Z 06007KT 12/M00 A3035 RMK A01 T01211003  RH  042%=      5-min Rain = 0
KHA2 142125Z 04008KT 12/M01 A3035 RMK A01 T01221008  RH  041%=      5-min Rain = 0
KHA2 142126Z 06007KT 12/M01 A3035 RMK A01 T01211010  RH  040%=      5-min Rain = 0
KHA2 142127Z 04004KT 12/M01 A3035 RMK A01 T01201012  RH  040%=      5-min Rain = 0
KHA2 142128Z 06005KT 12/M01 A3035 RMK A01 T01181013  RH  040%=      5-min Rain = 0
KHA2 142129Z 06005KT 12/M01 A3035 RMK A01 T01171013  RH  040%=      5-min Rain = 0
KHA2 142130Z 08004KT 12/M01 A3035 RMK A01 T01161013  RH  041%=      5-min Rain = 0
KHA2 142131Z 07004KT 12/M01 A3035 RMK A01 T01161010  RH  042%=      5-min Rain = 0
KHA2 142132Z 08004KT 12/M01 A3035 RMK A01 T01171011  RH  041%=      5-min Rain = 0
KHA2 142133Z 07006KT 12/M01 A3035 RMK A01 T01171012  RH  041%=      5-min Rain = 0
KHA2 142134Z 07009KT 12/M01 A3035 RMK A01 T01171010  RH  042%=      5-min Rain = 0
KHA2 142135Z 08009KT 12/M01 A3035 RMK A01 T01171008  RH  042%=      5-min Rain = 0
KHA2 142136Z 08008KT 12/M01 A3035 RMK A01 T01181008  RH  042%=      5-min Rain = 0
KHA2 142137Z 08005KT 12/M01 A3035 RMK A01 T01181012  RH  040%=      5-min Rain = 0
KHA2 142138Z 07005KT 12/M01 A3035 RMK A01 T01181011  RH  041%=      5-min Rain = 0
KHA2 142139Z 09006KT 12/M01 A3035 RMK A01 T01181011  RH  041%=      5-min Rain = 0
KHA2 142140Z 08007KT 12/M01 A3035 RMK A01 T01191010  RH  041%=      5-min Rain = 0
KHA2 142141Z 06008KT 12/M01 A3035 RMK A01 T01191010  RH  041%=      5-min Rain = 0
KHA2 142142Z 07008KT 12/M01 A3035 RMK A01 T01181012  RH  040%=      5-min Rain = 0
KHA2 142143Z 08008KT 12/M01 A3035 RMK A01 T01181012  RH  041%=      5-min Rain = 0
KHA2 142144Z 07008KT 12/M01 A3035 RMK A01 T01181010  RH  041%=      5-min Rain = 0
KHA2 142145Z 07009KT 12/M01 A3035 RMK A01 T01181009  RH  041%=      5-min Rain = 0
KHA2 142146Z 07006KT 12/M01 A3035 RMK A01 T01181012  RH  040%=      5-min Rain = 0
KHA2 142147Z 07006KT 12/M01 A3035 RMK A01 T01171013  RH  040%=      5-min Rain = 0
KHA2 142148Z 08005KT 12/M01 A3035 RMK A01 T01171014  RH  040%=      5-min Rain = 0
KHA2 142149Z 05006KT 12/M01 A3035 RMK A01 T01171013  RH  040%=      5-min Rain = 0
KHA2 142150Z 07005KT 12/M01 A3035 RMK A01 T01171014  RH  040%=      5-min Rain = 0
KHA2 142151Z 08003KT 12/M02 A3035 RMK A01 T01171015  RH  040%=      5-min Rain = 0
KHA2 142152Z 10002KT 12/M01 A3035 RMK A01 T01171013  RH  040%=      5-min Rain = 0
KHA2 142153Z 08001KT 12/M01 A3035 RMK A01 T01171013  RH  040%=      5-min Rain = 0
KHA2 142154Z 06003KT 12/M01 A3035 RMK A01 T01181012  RH  040%=      5-min Rain = 0
KHA2 142155Z 06005KT 12/M01 A3035 RMK A01 T01191012  RH  040%=      5-min Rain = 0
KHA2 142156Z 07007KT 12/M01 A3035 RMK A01 T01191011  RH  041%=      5-min Rain = 0
KHA2 142157Z 09008KT 12/M01 A3035 RMK A01 T01191010  RH  041%=      5-min Rain = 0
KHA2 142158Z 11007KT 12/M01 A3035 RMK A01 T01171012  RH  041%=      5-min Rain = 0
KHA2 142159Z 11006KT 12/M01 A3035 RMK A01 T01161014  RH  040%=      5-min Rain = 0
KHA2 142200Z 12004KT 12/M01 A3035 RMK A01 T01151014  RH  041%=      5-min Rain = 0
KHA2 142201Z 12004KT 12/M01 A3035 RMK A01 T01161014  RH  040%=      5-min Rain = 0
KHA2 142202Z 10004KT 12/M01 A3035 RMK A01 T01171013  RH  040%=      5-min Rain = 0
KHA2 142203Z 08006KT 12/M01 A3035 RMK A01 T01171011  RH  041%=      5-min Rain = 0
KHA2 142204Z 07006KT 12/M01 A3035 RMK A01 T01171010  RH  041%=      5-min Rain = 0
KHA2 142205Z 07006KT 12/M01 A3035 RMK A01 T01171013  RH  041%=      5-min Rain = 0
KHA2 142206Z 09005KT 12/M01 A3035 RMK A01 T01161009  RH  042%=      5-min Rain = 0
KHA2 142207Z 08005KT 12/M01 A3035 RMK A01 T01161011  RH  041%=      5-min Rain = 0
KHA2 142208Z 09004KT 12/M01 A3035 RMK A01 T01171009  RH  042%=      5-min Rain = 0
KHA2 142209Z 11004KT 12/M01 A3035 RMK A01 T01171008  RH  042%=      5-min Rain = 0
KHA2 142210Z 10004KT 12/M01 A3035 RMK A01 T01171011  RH  041%=      5-min Rain = 0
KHA2 142211Z 11003KT 12/M01 A3036 RMK A01 T01171010  RH  041%=      5-min Rain = 0
KHA2 142212Z 08002KT 12/M01 A3035 RMK A01 T01171011  RH  041%=      5-min Rain = 0
KHA2 142213Z 10004KT 12/M01 A3035 RMK A01 T01181013  RH  040%=      5-min Rain = 0
KHA2 142214Z 09004KT 12/M01 A3036 RMK A01 T01181013  RH  040%=      5-min Rain = 0
KHA2 142215Z 08004KT 12/M01 A3036 RMK A01 T01171013  RH  040%=      5-min Rain = 0
KHA2 142216Z 08005KT 12/M01 A3036 RMK A01 T01161013  RH  041%=      5-min Rain = 0
KHA2 142217Z 09005KT 12/M01 A3036 RMK A01 T01161011  RH  041%=      5-min Rain = 0
KHA2 142218Z 08004KT 12/M01 A3036 RMK A01 T01161009  RH  042%=      5-min Rain = 0
KHA2 142219Z 10003KT 12/M01 A3036 RMK A01 T01161008  RH  042%=      5-min Rain = 0
KHA2 142220Z 05003KT 12/M01 A3035 RMK A01 T01181008  RH  042%=      5-min Rain = 0
KHA2 142221Z 07003KT 12/M01 A3035 RMK A01 T01181011  RH  041%=      5-min Rain = 0
KHA2 142222Z 08005KT 12/M01 A3035 RMK A01 T01181011  RH  041%=      5-min Rain = 0
KHA2 142223Z 10005KT 12/M01 A3035 RMK A01 T01171010  RH  041%=      5-min Rain = 0
KHA2 142224Z 09004KT 12/M01 A3035 RMK A01 T01171011  RH  041%=      5-min Rain = 0
KHA2 142225Z 07005KT 12/M01 A3035 RMK A01 T01161012  RH  041%=      5-min Rain = 0
KHA2 142226Z 08005KT 12/M01 A3035 RMK A01 T01161013  RH  041%=      5-min Rain = 0
KHA2 142227Z 09004KT 12/M01 A3035 RMK A01 T01151013  RH  041%=      5-min Rain = 0
KHA2 142228Z 06005KT 12/M01 A3035 RMK A01 T01151010  RH  042%=      5-min Rain = 0
KHA2 142229Z 06007KT 12/M01 A3035 RMK A01 T01151011  RH  042%=      5-min Rain = 0
KHA2 142230Z 08007KT 12/M01 A3035 RMK A01 T01161008  RH  042%=      5-min Rain = 0
KHA2 142231Z 08005KT 12/M01 A3035 RMK A01 T01161010  RH  042%=      5-min Rain = 0
KHA2 142232Z 07004KT 12/M01 A3035 RMK A01 T01151010  RH  042%=      5-min Rain = 0
KHA2 142233Z 09006KT 12/M01 A3035 RMK A01 T01151008  RH  042%=      5-min Rain = 0
KHA2 142234Z 10006KT 12/M01 A3035 RMK A01 T01151007  RH  043%=      5-min Rain = 0
KHA2 142235Z 12006KT 12/M01 A3035 RMK A01 T01151009  RH  042%=      5-min Rain = 0
KHA2 142236Z 12004KT 12/M01 A3035 RMK A01 T01151013  RH  041%=      5-min Rain = 0
KHA2 142237Z 10004KT 11/M01 A3035 RMK A01 T01141013  RH  041%=      5-min Rain = 0
KHA2 142238Z 09006KT 11/M01 A3035 RMK A01 T01141009  RH  042%=      5-min Rain = 0
KHA2 142239Z 09006KT 11/M01 A3036 RMK A01 T01141009  RH  042%=      5-min Rain = 0
KHA2 142240Z 10005KT 11/M01 A3036 RMK A01 T01141009  RH  043%=      5-min Rain = 0
KHA2 142241Z 10004KT 11/M01 A3036 RMK A01 T01131009  RH  043%=      5-min Rain = 0
KHA2 142242Z 10003KT 11/M01 A3036 RMK A01 T01141012  RH  042%=      5-min Rain = 0
KHA2 142243Z 10005KT 11/M01 A3035 RMK A01 T01131010  RH  042%=      5-min Rain = 0
KHA2 142244Z 09006KT 11/M01 A3035 RMK A01 T01131010  RH  042%=      5-min Rain = 0
KHA2 142245Z 07006KT 11/M01 A3035 RMK A01 T01131009  RH  043%=      5-min Rain = 0
KHA2 142246Z 09006KT 11/M01 A3035 RMK A01 T01131007  RH  043%=      5-min Rain = 0
KHA2 142247Z 08005KT 11/M00 A3036 RMK A01 T01131004  RH  044%=      5-min Rain = 0
KHA2 142248Z 09004KT 11/M01 A3036 RMK A01 T01131009  RH  043%=      5-min Rain = 0
KHA2 142249Z 09003KT 11/M01 A3036 RMK A01 T01131011  RH  042%=      5-min Rain = 0
KHA2 142250Z 09004KT 11/M01 A3036 RMK A01 T01121008  RH  043%=      5-min Rain = 0
KHA2 142251Z 09004KT 11/M01 A3036 RMK A01 T01121007  RH  044%=      5-min Rain = 0
KHA2 142252Z 08004KT 11/M01 A3036 RMK A01 T01121010  RH  043%=      5-min Rain = 0
KHA2 142253Z 09004KT 11/M01 A3036 RMK A01 T01121011  RH  042%=      5-min Rain = 0
KHA2 142254Z 09005KT 11/M01 A3036 RMK A01 T01121010  RH  043%=      5-min Rain = 0
KHA2 142255Z 08005KT 11/M01 A3036 RMK A01 T01121011  RH  042%=      5-min Rain = 0
KHA2 142256Z 08005KT 11/M01 A3036 RMK A01 T01111009  RH  043%=      5-min Rain = 0
KHA2 142257Z 08005KT 11/M01 A3036 RMK A01 T01111011  RH  043%=      5-min Rain = 0
KHA2 142258Z 08005KT 11/M01 A3036 RMK A01 T01111009  RH  043%=      5-min Rain = 0
KHA2 142259Z 09005KT 11/M01 A3036 RMK A01 T01111008  RH  044%=      5-min Rain = 0
KHA2 142300Z 08004KT 11/M01 A3036 RMK A01 T01111009  RH  044%=      5-min Rain = 0
KHA2 142301Z 08004KT 11/M01 A3036 RMK A01 T01101007  RH  044%=      5-min Rain = 0
KHA2 142302Z 08003KT 11/M01 A3036 RMK A01 T01101007  RH  044%=      5-min Rain = 0
KHA2 142303Z 08003KT 11/M00 A3036 RMK A01 T01101003  RH  046%=      5-min Rain = 0
KHA2 142304Z 08003KT 11/M00 A3036 RMK A01 T01101004  RH  046%=      5-min Rain = 0
KHA2 142305Z 08003KT 11/M01 A3036 RMK A01 T01091007  RH  044%=      5-min Rain = 0
KHA2 142306Z 09003KT 11/M01 A3036 RMK A01 T01091005  RH  045%=      5-min Rain = 0
KHA2 142307Z 09003KT 11/M00 A3036 RMK A01 T01091004  RH  045%=      5-min Rain = 0
KHA2 142308Z 08004KT 11/M01 A3036 RMK A01 T01091006  RH  045%=      5-min Rain = 0
KHA2 142309Z 09004KT 11/M01 A3036 RMK A01 T01081007  RH  045%=      5-min Rain = 0
KHA2 142310Z 10004KT 11/M01 A3036 RMK A01 T01081006  RH  045%=      5-min Rain = 0
KHA2 142311Z 09004KT 11/M01 A3036 RMK A01 T01071007  RH  045%=      5-min Rain = 0
KHA2 142312Z 10004KT 11/M01 A3036 RMK A01 T01071006  RH  046%=      5-min Rain = 0
KHA2 142313Z 10004KT 11/M00 A3036 RMK A01 T01061003  RH  047%=      5-min Rain = 0
KHA2 142314Z 10004KT 11/M00 A3036 RMK A01 T01051003  RH  047%=      5-min Rain = 0
KHA2 142315Z 10004KT 11/M00 A3036 RMK A01 T01051004  RH  047%=      5-min Rain = 0
KHA2 142316Z 10004KT 11/M00 A3036 RMK A01 T01051004  RH  047%=      5-min Rain = 0
KHA2 142317Z 10004KT 11/M01 A3036 RMK A01 T01051005  RH  047%=      5-min Rain = 0
KHA2 142318Z 10004KT 10/M01 A3036 RMK A01 T01041005  RH  047%=      5-min Rain = 0
KHA2 142319Z 10004KT 10/M01 A3036 RMK A01 T01031006  RH  047%=      5-min Rain = 0
KHA2 142320Z 09004KT 10/M01 A3036 RMK A01 T01031006  RH  047%=      5-min Rain = 0
KHA2 142321Z 09005KT 10/M01 A3036 RMK A01 T01021006  RH  047%=      5-min Rain = 0
KHA2 142322Z 10005KT 10/M01 A3036 RMK A01 T01011006  RH  047%=      5-min Rain = 0
KHA2 142323Z 10004KT 10/M01 A3036 RMK A01 T01001006  RH  047%=      5-min Rain = 0
KHA2 142324Z 11005KT 10/M01 A3036 RMK A01 T00991010  RH  047%=      5-min Rain = 0
KHA2 142325Z 11004KT 10/M01 A3036 RMK A01 T00981010  RH  047%=      5-min Rain = 0
KHA2 142326Z 11004KT 10/M01 A3036 RMK A01 T00971013  RH  046%=      5-min Rain = 0
KHA2 142327Z 11004KT 10/M01 A3036 RMK A01 T00961014  RH  046%=      5-min Rain = 0
KHA2 142328Z 11004KT 10/M02 A3036 RMK A01 T00951015  RH  046%=      5-min Rain = 0
KHA2 142329Z 11004KT 09/M02 A3036 RMK A01 T00941015  RH  046%=      5-min Rain = 0
KHA2 142330Z 12004KT 09/M02 A3036 RMK A01 T00941015  RH  047%=      5-min Rain = 0
KHA2 142331Z 12004KT 09/M01 A3036 RMK A01 T00941014  RH  047%=      5-min Rain = 0
KHA2 142332Z 12004KT 09/M01 A3036 RMK A01 T00941014  RH  047%=      5-min Rain = 0
KHA2 142333Z 12004KT 09/M01 A3036 RMK A01 T00941014  RH  047%=      5-min Rain = 0
KHA2 142334Z 12004KT 09/M01 A3036 RMK A01 T00941013  RH  047%=      5-min Rain = 0
KHA2 142335Z 12003KT 09/M01 A3036 RMK A01 T00931013  RH  047%=      5-min Rain = 0
KHA2 142336Z 12003KT 09/M01 A3036 RMK A01 T00921011  RH  049%=      5-min Rain = 0
KHA2 142337Z 12004KT 09/M01 A3036 RMK A01 T00911012  RH  048%=      5-min Rain = 0
KHA2 142338Z 12004KT 09/M01 A3036 RMK A01 T00901014  RH  048%=      5-min Rain = 0
KHA2 142339Z 12004KT 09/M01 A3036 RMK A01 T00891014  RH  048%=      5-min Rain = 0
KHA2 142340Z 13004KT 09/M01 A3036 RMK A01 T00891014  RH  049%=      5-min Rain = 0
KHA2 142341Z 13004KT 09/M01 A3036 RMK A01 T00871014  RH  049%=      5-min Rain = 0
KHA2 142342Z 13004KT 09/M01 A3036 RMK A01 T00861014  RH  049%=      5-min Rain = 0
KHA2 142343Z 13005KT 09/M02 A3036 RMK A01 T00851015  RH  049%=      5-min Rain = 0
KHA2 142344Z 12005KT 08/M02 A3037 RMK A01 T00841015  RH  050%=      5-min Rain = 0
KHA2 142345Z 13005KT 08/M02 A3037 RMK A01 T00831015  RH  050%=      5-min Rain = 0
KHA2 142346Z 12005KT 08/M02 A3037 RMK A01 T00821015  RH  050%=      5-min Rain = 0
KHA2 142347Z 13005KT 08/M02 A3037 RMK A01 T00821016  RH  050%=      5-min Rain = 0
KHA2 142348Z 13005KT 08/M02 A3037 RMK A01 T00811016  RH  050%=      5-min Rain = 0
KHA2 142349Z 13005KT 08/M02 A3037 RMK A01 T00811016  RH  051%=      5-min Rain = 0
KHA2 142350Z 14004KT 08/M02 A3037 RMK A01 T00791017  RH  051%=      5-min Rain = 0
KHA2 142351Z 14003KT 08/M02 A3037 RMK A01 T00771018  RH  051%=      5-min Rain = 0
KHA2 142352Z 14003KT 08/M02 A3037 RMK A01 T00751019  RH  051%=      5-min Rain = 0
KHA2 142353Z 13004KT 07/M02 A3037 RMK A01 T00741017  RH  052%=      5-min Rain = 0
KHA2 142354Z 13004KT 07/M02 A3037 RMK A01 T00731017  RH  053%=      5-min Rain = 0
KHA2 142355Z 13005KT 07/M02 A3037 RMK A01 T00721017  RH  053%=      5-min Rain = 0
KHA2 142356Z 13005KT 07/M02 A3037 RMK A01 T00721017  RH  053%=      5-min Rain = 0
KHA2 142357Z 13005KT 07/M02 A3037 RMK A01 T00711017  RH  053%=      5-min Rain = 0
KHA2 142358Z 13005KT 07/M02 A3037 RMK A01 T00711017  RH  054%=      5-min Rain = 0
KHA2 142359Z 13004KT 07/M02 A3037 RMK A01 T00711017  RH  054%=      5-min Rain = 0
KHA2 150000Z 13005KT 07/M02 A3037 RMK A01 T00711016  RH  054%=      5-min Rain = 0
KHA2 150001Z 13005KT 07/M02 A3037 RMK A01 T00701016  RH  054%=      5-min Rain = 0
KHA2 150002Z 13005KT 07/M02 A3037 RMK A01 T00701016  RH  054%=      5-min Rain = 0
KHA2 150003Z 13005KT 07/M02 A3037 RMK A01 T00701016  RH  054%=      5-min Rain = 0
KHA2 150004Z 13005KT 07/M02 A3037 RMK A01 T00711016  RH  054%=      5-min Rain = 0
KHA2 150005Z 13004KT 07/M02 A3037 RMK A01 T00711016  RH  054%=      5-min Rain = 0
KHA2 150006Z 13004KT 07/M02 A3037 RMK A01 T00711016  RH  054%=      5-min Rain = 0
KHA2 150007Z 14004KT 07/M02 A3037 RMK A01 T00701017  RH  054%=      5-min Rain = 0
KHA2 150008Z 15004KT 07/M02 A3038 RMK A01 T00701017  RH  054%=      5-min Rain = 0
KHA2 150009Z 15004KT 07/M02 A3038 RMK A01 T00681017  RH  054%=      5-min Rain = 0
KHA2 150010Z 15003KT 07/M02 A3038 RMK A01 T00671018  RH  055%=      5-min Rain = 0
KHA2 150011Z 15003KT 06/M02 A3038 RMK A01 T00641020  RH  055%=      5-min Rain = 0
KHA2 150012Z 16003KT 06/M02 A3038 RMK A01 T00621021  RH  056%=      5-min Rain = 0
KHA2 150013Z 17004KT 06/M02 A3038 RMK A01 T00611020  RH  056%=      5-min Rain = 0
KHA2 150014Z 17004KT 06/M02 A3038 RMK A01 T00611019  RH  056%=      5-min Rain = 0
KHA2 150015Z 17004KT 06/M02 A3038 RMK A01 T00601020  RH  057%=      5-min Rain = 0
KHA2 150016Z 16004KT 06/M02 A3038 RMK A01 T00591020  RH  057%=      5-min Rain = 0
KHA2 150017Z 16004KT 06/M02 A3038 RMK A01 T00581020  RH  057%=      5-min Rain = 0
KHA2 150018Z 16004KT 06/M02 A3038 RMK A01 T00581020  RH  057%=      5-min Rain = 0
KHA2 150019Z 16004KT 06/M02 A3038 RMK A01 T00581020  RH  057%=      5-min Rain = 0
KHA2 150020Z 16004KT 06/M02 A3038 RMK A01 T00571020  RH  058%=      5-min Rain = 0
KHA2 150021Z 16004KT 06/M02 A3038 RMK A01 T00561021  RH  058%=      5-min Rain = 0
KHA2 150022Z 16004KT 06/M02 A3038 RMK A01 T00561020  RH  058%=      5-min Rain = 0
KHA2 150023Z 15004KT 06/M02 A3038 RMK A01 T00561019  RH  058%=      5-min Rain = 0
KHA2 150024Z 15004KT 06/M02 A3038 RMK A01 T00571018  RH  058%=      5-min Rain = 0
KHA2 150025Z 15005KT 06/M02 A3038 RMK A01 T00571019  RH  058%=      5-min Rain = 0
KHA2 150026Z 16004KT 06/M02 A3038 RMK A01 T00571020  RH  058%=      5-min Rain = 0
KHA2 150027Z 16004KT 06/M02 A3038 RMK A01 T00561021  RH  058%=      5-min Rain = 0
KHA2 150028Z 16004KT 06/M02 A3039 RMK A01 T00551022  RH  058%=      5-min Rain = 0
KHA2 150029Z 16005KT 05/M02 A3039 RMK A01 T00541022  RH  058%=      5-min Rain = 0
KHA2 150030Z 17006KT 05/M02 A3039 RMK A01 T00531022  RH  059%=      5-min Rain = 0
KHA2 150031Z 17006KT 05/M02 A3039 RMK A01 T00531022  RH  059%=      5-min Rain = 0
KHA2 150032Z 17006KT 05/M02 A3039 RMK A01 T00521022  RH  059%=      5-min Rain = 0
KHA2 150033Z 16006KT 05/M02 A3039 RMK A01 T00521023  RH  059%=      5-min Rain = 0
KHA2 150034Z 16006KT 05/M02 A3039 RMK A01 T00501024  RH  059%=      5-min Rain = 0
KHA2 150035Z 15007KT 05/M02 A3039 RMK A01 T00501024  RH  059%=      5-min Rain = 0
KHA2 150036Z 15006KT 05/M02 A3039 RMK A01 T00501024  RH  059%=      5-min Rain = 0
KHA2 150037Z 15007KT 05/M02 A3039 RMK A01 T00501024  RH  059%=      5-min Rain = 0
KHA2 150038Z 15007KT 05/M02 A3039 RMK A01 T00491024  RH  059%=      5-min Rain = 0
KHA2 150039Z 15007KT 05/M03 A3039 RMK A01 T00491025  RH  059%=      5-min Rain = 0
KHA2 150040Z 15007KT 05/M02 A3039 RMK A01 T00491024  RH  059%=      5-min Rain = 0
KHA2 150041Z 15007KT 05/M03 A3039 RMK A01 T00481025  RH  059%=      5-min Rain = 0
KHA2 150042Z 15006KT 05/M03 A3039 RMK A01 T00471025  RH  059%=      5-min Rain = 0
KHA2 150043Z 15006KT 05/M03 A3039 RMK A01 T00461025  RH  060%=      5-min Rain = 0
KHA2 150044Z 15006KT 05/M03 A3039 RMK A01 T00461025  RH  060%=      5-min Rain = 0
KHA2 150045Z 15006KT 05/M02 A3039 RMK A01 T00461024  RH  060%=      5-min Rain = 0
KHA2 150046Z 15006KT 05/M02 A3039 RMK A01 T00451024  RH  061%=      5-min Rain = 0
KHA2 150047Z 15006KT 05/M02 A3039 RMK A01 T00461022  RH  061%=      5-min Rain = 0
KHA2 150048Z 15006KT 05/M02 A3039 RMK A01 T00471022  RH  061%=      5-min Rain = 0
KHA2 150049Z 15006KT 05/M02 A3039 RMK A01 T00471022  RH  061%=      5-min Rain = 0
KHA2 150050Z 15006KT 05/M02 A3039 RMK A01 T00471023  RH  061%=      5-min Rain = 0
KHA2 150051Z 15006KT 05/M02 A3039 RMK A01 T00461024  RH  061%=      5-min Rain = 0
KHA2 150052Z 15007KT 05/M02 A3039 RMK A01 T00451023  RH  061%=      5-min Rain = 0
KHA2 150053Z 15007KT 05/M02 A3039 RMK A01 T00451023  RH  061%=      5-min Rain = 0
KHA2 150054Z 15006KT 05/M02 A3039 RMK A01 T00451023  RH  062%=      5-min Rain = 0
KHA2 150055Z 14006KT 04/M02 A3039 RMK A01 T00441023  RH  062%=      5-min Rain = 0
KHA2 150056Z 14006KT 04/M02 A3039 RMK A01 T00441023  RH  062%=      5-min Rain = 0
KHA2 150057Z 14006KT 04/M02 A3039 RMK A01 T00441023  RH  062%=      5-min Rain = 0
KHA2 150058Z 14006KT 04/M02 A3039 RMK A01 T00431023  RH  062%=      5-min Rain = 0
KHA2 150059Z 14006KT 04/M02 A3039 RMK A01 T00431023  RH  062%=      5-min Rain = 0
KHA2 150100Z 14006KT 04/M02 A3039 RMK A01 T00431023  RH  062%=      5-min Rain = 0
KHA2 150101Z 14005KT 04/M02 A3039 RMK A01 T00421024  RH  062%=      5-min Rain = 0
KHA2 150102Z 14006KT 04/M02 A3039 RMK A01 T00421024  RH  062%=      5-min Rain = 0
KHA2 150103Z 14006KT 04/M02 A3039 RMK A01 T00411024  RH  062%=      5-min Rain = 0
KHA2 150104Z 14006KT 04/M02 A3039 RMK A01 T00411024  RH  063%=      5-min Rain = 0
KHA2 150105Z 14006KT 04/M02 A3039 RMK A01 T00411023  RH  063%=      5-min Rain = 0
KHA2 150106Z 14006KT 04/M02 A3039 RMK A01 T00411024  RH  063%=      5-min Rain = 0
KHA2 150107Z 14006KT 04/M02 A3039 RMK A01 T00411024  RH  063%=      5-min Rain = 0
KHA2 150108Z 14006KT 04/M02 A3039 RMK A01 T00411024  RH  063%=      5-min Rain = 0
KHA2 150109Z 14006KT 04/M02 A3039 RMK A01 T00411024  RH  063%=      5-min Rain = 0
KHA2 150110Z 14006KT 04/M02 A3039 RMK A01 T00411024  RH  063%=      5-min Rain = 0
KHA2 150111Z 14006KT 04/M02 A3039 RMK A01 T00411024  RH  063%=      5-min Rain = 0
KHA2 150112Z 14006KT 04/M02 A3039 RMK A01 T00411024  RH  063%=      5-min Rain = 0
KHA2 150113Z 14006KT 04/M02 A304 RMK A01 T00401024  RH  063%=      5-min Rain = 0
KHA2 150114Z 14005KT 04/M02 A304 RMK A01 T00401024  RH  063%=      5-min Rain = 0
KHA2 150115Z 15005KT 04/M02 A304 RMK A01 T00391024  RH  063%=      5-min Rain = 0
KHA2 150116Z 16004KT 04/M02 A304 RMK A01 T00381024  RH  064%=      5-min Rain = 0
KHA2 150117Z 21003KT 04/M03 A304 RMK A01 T00371025  RH  064%=      5-min Rain = 0
KHA2 150118Z 19005KT 04/M03 A304 RMK A01 T00361026  RH  064%=      5-min Rain = 0
KHA2 150119Z 18006KT 03/M03 A304 RMK A01 T00341027  RH  064%=      5-min Rain = 0
KHA2 150120Z 18005KT 03/M03 A304 RMK A01 T00321027  RH  065%=      5-min Rain = 0
KHA2 150121Z 18006KT 03/M03 A304 RMK A01 T00311026  RH  066%=      5-min Rain = 0
KHA2 150122Z 18006KT 03/M03 A304 RMK A01 T00311025  RH  066%=      5-min Rain = 0
KHA2 150123Z 19005KT 03/M03 A304 RMK A01 T00301026  RH  067%=      5-min Rain = 0
KHA2 150124Z 19006KT 03/M03 A304 RMK A01 T00291027  RH  067%=      5-min Rain = 0
KHA2 150125Z 19005KT 03/M03 A304 RMK A01 T00281026  RH  067%=      5-min Rain = 0
KHA2 150126Z 18005KT 03/M02 A304 RMK A01 T00291024  RH  068%=      5-min Rain = 0
KHA2 150127Z 18005KT 03/M02 A304 RMK A01 T00311022  RH  068%=      5-min Rain = 0
KHA2 150128Z 18005KT 03/M02 A304 RMK A01 T00331022  RH  067%=      5-min Rain = 0
KHA2 150129Z 18005KT 04/M02 A304 RMK A01 T00351022  RH  066%=      5-min Rain = 0
KHA2 150130Z 18005KT 04/M02 A304 RMK A01 T00351024  RH  065%=      5-min Rain = 0
KHA2 150131Z 17005KT 04/M03 A304 RMK A01 T00351025  RH  065%=      5-min Rain = 0
KHA2 150132Z 17005KT 04/M02 A304 RMK A01 T00351024  RH  065%=      5-min Rain = 0
KHA2 150133Z 17005KT 04/M02 A304 RMK A01 T00351024  RH  065%=      5-min Rain = 0
KHA2 150134Z 17006KT 04/M02 A304 RMK A01 T00351024  RH  065%=      5-min Rain = 0
KHA2 150135Z 17006KT 04/M03 A304 RMK A01 T00351025  RH  065%=      5-min Rain = 0
KHA2 150136Z 17006KT 03/M03 A304 RMK A01 T00341025  RH  065%=      5-min Rain = 0
KHA2 150137Z 17006KT 03/M03 A304 RMK A01 T00331025  RH  066%=      5-min Rain = 0
KHA2 150138Z 17006KT 03/M03 A304 RMK A01 T00331025  RH  066%=      5-min Rain = 0
KHA2 150139Z 17006KT 03/M03 A3041 RMK A01 T00321025  RH  066%=      5-min Rain = 0
KHA2 150140Z 18005KT 03/M03 A3041 RMK A01 T00321025  RH  066%=      5-min Rain = 0
KHA2 150141Z 19005KT 03/M03 A3041 RMK A01 T00311027  RH  066%=      5-min Rain = 0
KHA2 150142Z 18005KT 03/M03 A3041 RMK A01 T00291027  RH  067%=      5-min Rain = 0
KHA2 150143Z 18006KT 03/M03 A3041 RMK A01 T00281027  RH  067%=      5-min Rain = 0
KHA2 150144Z 18006KT 03/M03 A3041 RMK A01 T00281027  RH  067%=      5-min Rain = 0
KHA2 150145Z 17006KT 03/M03 A3041 RMK A01 T00271027  RH  068%=      5-min Rain = 0
KHA2 150146Z 17006KT 03/M03 A3041 RMK A01 T00261027  RH  068%=      5-min Rain = 0
KHA2 150147Z 17006KT 03/M03 A3041 RMK A01 T00261026  RH  068%=      5-min Rain = 0
KHA2 150148Z 17006KT 03/M03 A3041 RMK A01 T00261026  RH  069%=      5-min Rain = 0
KHA2 150149Z 17006KT 03/M03 A3041 RMK A01 T00261026  RH  069%=      5-min Rain = 0
KHA2 150150Z 17006KT 03/M03 A3041 RMK A01 T00261026  RH  069%=      5-min Rain = 0
KHA2 150151Z 18005KT 03/M03 A3041 RMK A01 T00261026  RH  068%=      5-min Rain = 0
KHA2 150152Z 18006KT 03/M03 A3041 RMK A01 T00261027  RH  068%=      5-min Rain = 0
KHA2 150153Z 19006KT 03/M03 A3041 RMK A01 T00251026  RH  069%=      5-min Rain = 0
KHA2 150154Z 19006KT 03/M03 A3041 RMK A01 T00251027  RH  069%=      5-min Rain = 0
KHA2 150155Z 19007KT 02/M03 A3041 RMK A01 T00241028  RH  069%=      5-min Rain = 0
KHA2 150156Z 19007KT 02/M03 A3041 RMK A01 T00231028  RH  069%=      5-min Rain = 0
KHA2 150157Z 19007KT 02/M03 A3041 RMK A01 T00221028  RH  069%=      5-min Rain = 0
KHA2 150158Z 19008KT 02/M03 A3041 RMK A01 T00221027  RH  070%=      5-min Rain = 0
KHA2 150159Z 18008KT 02/M03 A3041 RMK A01 T00221027  RH  070%=      5-min Rain = 0
KHA2 150200Z 19007KT 02/M03 A3041 RMK A01 T00221026  RH  070%=      5-min Rain = 0
KHA2 150201Z 19007KT 02/M03 A3041 RMK A01 T00231025  RH  070%=      5-min Rain = 0
KHA2 150202Z 19006KT 02/M03 A3041 RMK A01 T00241025  RH  070%=      5-min Rain = 0
KHA2 150203Z 19005KT 02/M02 A3041 RMK A01 T00241024  RH  071%=      5-min Rain = 0
KHA2 150204Z 20005KT 03/M02 A3041 RMK A01 T00251022  RH  071%=      5-min Rain = 0
KHA2 150205Z 20005KT 03/M02 A3041 RMK A01 T00261023  RH  070%=      5-min Rain = 0
KHA2 150206Z 20005KT 03/M02 A3041 RMK A01 T00261024  RH  070%=      5-min Rain = 0
KHA2 150207Z 20005KT 03/M03 A3041 RMK A01 T00261025  RH  069%=      5-min Rain = 0
KHA2 150208Z 19005KT 03/M03 A3041 RMK A01 T00261026  RH  069%=      5-min Rain = 0
KHA2 150209Z 20005KT 03/M03 A3041 RMK A01 T00261026  RH  068%=      5-min Rain = 0
KHA2 150210Z 19005KT 03/M03 A3041 RMK A01 T00271026  RH  068%=      5-min Rain = 0
KHA2 150211Z 20005KT 03/M03 A3041 RMK A01 T00271026  RH  068%=      5-min Rain = 0
KHA2 150212Z 19005KT 03/M03 A3041 RMK A01 T00281026  RH  068%=      5-min Rain = 0
KHA2 150213Z 19005KT 03/M03 A3041 RMK A01 T00281026  RH  067%=      5-min Rain = 0
KHA2 150214Z 19005KT 03/M03 A3041 RMK A01 T00281027  RH  067%=      5-min Rain = 0
KHA2 150215Z 19005KT 03/M03 A3041 RMK A01 T00281027  RH  067%=      5-min Rain = 0
KHA2 150216Z 19005KT 03/M03 A3041 RMK A01 T00281026  RH  067%=      5-min Rain = 0
KHA2 150217Z 19005KT 03/M03 A3041 RMK A01 T00291026  RH  067%=      5-min Rain = 0
KHA2 150218Z 19005KT 03/M03 A3041 RMK A01 T00301025  RH  067%=      5-min Rain = 0
KHA2 150219Z 19005KT 03/M03 A3041 RMK A01 T00311025  RH  067%=      5-min Rain = 0
KHA2 150220Z 19005KT 03/M03 A3041 RMK A01 T00321025  RH  067%=      5-min Rain = 0
KHA2 150221Z 20004KT 03/M02 A3041 RMK A01 T00331024  RH  066%=      5-min Rain = 0
KHA2 150222Z 20005KT 03/M03 A3041 RMK A01 T00331025  RH  066%=      5-min Rain = 0
KHA2 150223Z 20005KT 03/M03 A3041 RMK A01 T00331025  RH  066%=      5-min Rain = 0
KHA2 150224Z 20005KT 03/M03 A3041 RMK A01 T00331025  RH  066%=      5-min Rain = 0
KHA2 150225Z 20005KT 03/M03 A3041 RMK A01 T00321026  RH  066%=      5-min Rain = 0
KHA2 150226Z 20005KT 03/M03 A3041 RMK A01 T00321026  RH  066%=      5-min Rain = 0
KHA2 150227Z 20005KT 03/M03 A3041 RMK A01 T00311027  RH  066%=      5-min Rain = 0
KHA2 150228Z 20005KT 03/M03 A3041 RMK A01 T00301026  RH  066%=      5-min Rain = 0
KHA2 150229Z 19005KT 03/M03 A3041 RMK A01 T00301026  RH  067%=      5-min Rain = 0
KHA2 150230Z 19005KT 03/M03 A3041 RMK A01 T00291027  RH  067%=      5-min Rain = 0
KHA2 150231Z 20005KT 03/M03 A3041 RMK A01 T00291027  RH  067%=      5-min Rain = 0
KHA2 150232Z 20005KT 03/M03 A3041 RMK A01 T00281028  RH  067%=      5-min Rain = 0
KHA2 150233Z 20005KT 03/M03 A3041 RMK A01 T00281028  RH  067%=      5-min Rain = 0
KHA2 150234Z 19005KT 03/M03 A3041 RMK A01 T00281027  RH  067%=      5-min Rain = 0
KHA2 150235Z 20005KT 03/M03 A3041 RMK A01 T00271027  RH  067%=      5-min Rain = 0
KHA2 150236Z 20005KT 03/M03 A3041 RMK A01 T00271027  RH  068%=      5-min Rain = 0
KHA2 150237Z 20005KT 03/M03 A3041 RMK A01 T00271027  RH  068%=      5-min Rain = 0
KHA2 150238Z 20005KT 03/M03 A3041 RMK A01 T00271027  RH  068%=      5-min Rain = 0
KHA2 150239Z 20005KT 03/M03 A3041 RMK A01 T00281027  RH  067%=      5-min Rain = 0
KHA2 150240Z 20005KT 03/M03 A3041 RMK A01 T00271028  RH  067%=      5-min Rain = 0
KHA2 150241Z 20005KT 03/M03 A3041 RMK A01 T00261029  RH  067%=      5-min Rain = 0
KHA2 150242Z 19005KT 03/M03 A3041 RMK A01 T00261028  RH  068%=      5-min Rain = 0
KHA2 150243Z 19005KT 03/M03 A3041 RMK A01 T00261028  RH  068%=      5-min Rain = 0
KHA2 150244Z 19005KT 03/M03 A3041 RMK A01 T00271027  RH  068%=      5-min Rain = 0
KHA2 150245Z 19005KT 03/M03 A3041 RMK A01 T00281027  RH  067%=      5-min Rain = 0
KHA2 150246Z 19005KT 03/M03 A3041 RMK A01 T00291027  RH  067%=      5-min Rain = 0
KHA2 150247Z 19005KT 03/M03 A3041 RMK A01 T00301026  RH  067%=      5-min Rain = 0
KHA2 150248Z 19004KT 03/M03 A3041 RMK A01 T00301026  RH  066%=      5-min Rain = 0
KHA2 150249Z 19005KT 03/M03 A3041 RMK A01 T00301027  RH  066%=      5-min Rain = 0
KHA2 150250Z 19005KT 03/M03 A3041 RMK A01 T00291027  RH  066%=      5-min Rain = 0
KHA2 150251Z 19005KT 03/M03 A3041 RMK A01 T00301027  RH  066%=      5-min Rain = 0
KHA2 150252Z 19005KT 03/M03 A3041 RMK A01 T00301027  RH  066%=      5-min Rain = 0
KHA2 150253Z 19005KT 03/M03 A3041 RMK A01 T00291028  RH  066%=      5-min Rain = 0
KHA2 150254Z 19005KT 03/M03 A3041 RMK A01 T00291028  RH  067%=      5-min Rain = 0
KHA2 150255Z 19005KT 03/M03 A3041 RMK A01 T00271029  RH  067%=      5-min Rain = 0
KHA2 150256Z 20005KT 02/M03 A3041 RMK A01 T00241032  RH  067%=      5-min Rain = 0
KHA2 150257Z 20005KT 02/M03 A3041 RMK A01 T00221032  RH  068%=      5-min Rain = 0
KHA2 150258Z 20005KT 02/M03 A3041 RMK A01 T00211030  RH  069%=      5-min Rain = 0
KHA2 150259Z 19005KT 02/M03 A3041 RMK A01 T00221029  RH  069%=      5-min Rain = 0
KHA2 150300Z 19006KT 02/M03 A3041 RMK A01 T00221028  RH  069%=      5-min Rain = 0
KHA2 150301Z 19006KT 02/M03 A3041 RMK A01 T00231028  RH  069%=      5-min Rain = 0
KHA2 150302Z 19006KT 02/M03 A3041 RMK A01 T00231029  RH  069%=      5-min Rain = 0
KHA2 150303Z 18006KT 02/M03 A3041 RMK A01 T00221029  RH  069%=      5-min Rain = 0
KHA2 150304Z 19006KT 02/M03 A3041 RMK A01 T00211030  RH  069%=      5-min Rain = 0
KHA2 150305Z 19006KT 02/M03 A3041 RMK A01 T00211029  RH  070%=      5-min Rain = 0
KHA2 150306Z 19006KT 02/M03 A3041 RMK A01 T00211029  RH  070%=      5-min Rain = 0
KHA2 150307Z 19006KT 02/M03 A3041 RMK A01 T00221028  RH  070%=      5-min Rain = 0
KHA2 150308Z 20006KT 02/M03 A3041 RMK A01 T00211030  RH  069%=      5-min Rain = 0
KHA2 150309Z 20006KT 02/M03 A3041 RMK A01 T00191031  RH  069%=      5-min Rain = 0
KHA2 150310Z 20005KT 02/M03 A3041 RMK A01 T00161032  RH  070%=      5-min Rain = 0
KHA2 150311Z 20005KT 02/M03 A3041 RMK A01 T00151031  RH  071%=      5-min Rain = 0
KHA2 150312Z 19005KT 02/M03 A3041 RMK A01 T00151030  RH  072%=      5-min Rain = 0
KHA2 150313Z 19005KT 02/M03 A3041 RMK A01 T00151030  RH  072%=      5-min Rain = 0
KHA2 150314Z 19005KT 02/M03 A3041 RMK A01 T00151030  RH  072%=      5-min Rain = 0
KHA2 150315Z 19005KT 02/M03 A3041 RMK A01 T00161029  RH  072%=      5-min Rain = 0
KHA2 150316Z 19005KT 02/M03 A3041 RMK A01 T00161030  RH  072%=      5-min Rain = 0
KHA2 150317Z 19005KT 02/M03 A3041 RMK A01 T00151030  RH  072%=      5-min Rain = 0
KHA2 150318Z 19005KT 02/M03 A3041 RMK A01 T00151031  RH  072%=      5-min Rain = 0
KHA2 150319Z 19005KT 01/M03 A3041 RMK A01 T00141031  RH  072%=      5-min Rain = 0
KHA2 150320Z 19005KT 01/M03 A3041 RMK A01 T00131031  RH  072%=      5-min Rain = 0
KHA2 150321Z 19006KT 01/M03 A3041 RMK A01 T00131031  RH  073%=      5-min Rain = 0
KHA2 150322Z 19006KT 01/M03 A3041 RMK A01 T00131030  RH  073%=      5-min Rain = 0
KHA2 150323Z 20006KT 01/M03 A3041 RMK A01 T00131030  RH  073%=      5-min Rain = 0
KHA2 150324Z 20006KT 01/M03 A3041 RMK A01 T00121032  RH  073%=      5-min Rain = 0
KHA2 150325Z 20006KT 01/M03 A3041 RMK A01 T00101032  RH  073%=      5-min Rain = 0
KHA2 150326Z 20006KT 01/M03 A3041 RMK A01 T00101032  RH  074%=      5-min Rain = 0
KHA2 150327Z 20006KT 01/M03 A3041 RMK A01 T00101031  RH  074%=      5-min Rain = 0
KHA2 150328Z 20006KT 01/M03 A3041 RMK A01 T00101032  RH  074%=      5-min Rain = 0
KHA2 150329Z 20006KT 01/M03 A3041 RMK A01 T00101032  RH  074%=      5-min Rain = 0
KHA2 150330Z 20006KT 01/M03 A3041 RMK A01 T00101032  RH  074%=      5-min Rain = 0
KHA2 150331Z 20007KT 01/M03 A3041 RMK A01 T00101031  RH  074%=      5-min Rain = 0
KHA2 150332Z 20007KT 01/M03 A3041 RMK A01 T00091032  RH  074%=      5-min Rain = 0
KHA2 150333Z 20007KT 01/M03 A3041 RMK A01 T00091032  RH  074%=      5-min Rain = 0
KHA2 150334Z 20007KT 01/M03 A3041 RMK A01 T00091032  RH  074%=      5-min Rain = 0
KHA2 150335Z 20007KT 01/M03 A3041 RMK A01 T00081033  RH  074%=      5-min Rain = 0
KHA2 150336Z 20007KT 01/M03 A3041 RMK A01 T00081033  RH  074%=      5-min Rain = 0
KHA2 150337Z 20007KT 01/M03 A3041 RMK A01 T00071033  RH  075%=      5-min Rain = 0
KHA2 150338Z 20006KT 01/M03 A3041 RMK A01 T00071033  RH  075%=      5-min Rain = 0
KHA2 150339Z 20006KT 01/M03 A3041 RMK A01 T00071032  RH  075%=      5-min Rain = 0
KHA2 150340Z 20006KT 01/M03 A3041 RMK A01 T00071032  RH  075%=      5-min Rain = 0
KHA2 150341Z 20006KT 01/M03 A3041 RMK A01 T00061033  RH  075%=      5-min Rain = 0
KHA2 150342Z 21006KT 01/M03 A3041 RMK A01 T00061033  RH  075%=      5-min Rain = 0
KHA2 150343Z 21006KT 01/M03 A3041 RMK A01 T00061033  RH  075%=      5-min Rain = 0
KHA2 150344Z 21006KT 01/M03 A3041 RMK A01 T00061033  RH  075%=      5-min Rain = 0
KHA2 150345Z 21006KT 01/M03 A3041 RMK A01 T00051034  RH  075%=      5-min Rain = 0
KHA2 150346Z 21006KT 00/M04 A3041 RMK A01 T00041035  RH  075%=      5-min Rain = 0
KHA2 150347Z 21006KT 00/M04 A3041 RMK A01 T00031036  RH  075%=      5-min Rain = 0
KHA2 150348Z 21006KT 00/M04 A3041 RMK A01 T00031035  RH  076%=      5-min Rain = 0
KHA2 150349Z 21006KT 00/M04 A3041 RMK A01 T00031035  RH  076%=      5-min Rain = 0
KHA2 150350Z 21006KT 00/M04 A3041 RMK A01 T00031035  RH  076%=      5-min Rain = 0
KHA2 150351Z 21006KT 00/M04 A3041 RMK A01 T00031035  RH  075%=      5-min Rain = 0
KHA2 150352Z 21006KT 00/M04 A3041 RMK A01 T00031035  RH  076%=      5-min Rain = 0
KHA2 150353Z 21006KT 00/M04 A3041 RMK A01 T00031035  RH  076%=      5-min Rain = 0
KHA2 150354Z 21006KT 00/M04 A3041 RMK A01 T00031035  RH  076%=      5-min Rain = 0
KHA2 150355Z 21006KT 00/M04 A3041 RMK A01 T00031035  RH  076%=      5-min Rain = 0
KHA2 150356Z 22006KT 00/M04 A3041 RMK A01 T00031035  RH  076%=      5-min Rain = 0
KHA2 150357Z 22006KT 00/M04 A3041 RMK A01 T00031036  RH  075%=      5-min Rain = 0
KHA2 150358Z 22006KT 00/M04 A3042 RMK A01 T00031036  RH  075%=      5-min Rain = 0
KHA2 150359Z 22006KT 00/M04 A3042 RMK A01 T00031036  RH  075%=      5-min Rain = 0
KHA2 150400Z 22006KT 00/M04 A3042 RMK A01 T00031035  RH  075%=      5-min Rain = 0
KHA2 150401Z 22007KT 00/M04 A3042 RMK A01 T00031035  RH  076%=      5-min Rain = 0
KHA2 150402Z 22007KT 00/M03 A3042 RMK A01 T00041034  RH  075%=      5-min Rain = 0
KHA2 150403Z 22007KT 00/M03 A3042 RMK A01 T00041034  RH  075%=      5-min Rain = 0
KHA2 150404Z 22007KT 01/M03 A3042 RMK A01 T00051034  RH  075%=      5-min Rain = 0
KHA2 150405Z 22007KT 01/M03 A3042 RMK A01 T00051034  RH  075%=      5-min Rain = 0
KHA2 150406Z 22007KT 01/M04 A3042 RMK A01 T00051035  RH  075%=      5-min Rain = 0
KHA2 150407Z 22007KT 01/M03 A3042 RMK A01 T00061034  RH  075%=      5-min Rain = 0
KHA2 150408Z 22007KT 01/M03 A3042 RMK A01 T00071033  RH  075%=      5-min Rain = 0
KHA2 150409Z 22007KT 01/M03 A3042 RMK A01 T00071034  RH  074%=      5-min Rain = 0
KHA2 150410Z 22007KT 01/M03 A3042 RMK A01 T00071034  RH  074%=      5-min Rain = 0
KHA2 150411Z 22008KT 01/M04 A3042 RMK A01 T00061035  RH  074%=      5-min Rain = 0
KHA2 150412Z 22008KT 01/M04 A3042 RMK A01 T00061036  RH  074%=      5-min Rain = 0
KHA2 150413Z 22007KT 01/M03 A3042 RMK A01 T00071034  RH  074%=      5-min Rain = 0
KHA2 150414Z 23008KT 01/M03 A3042 RMK A01 T00081033  RH  074%=      5-min Rain = 0
KHA2 150415Z 23008KT 01/M03 A3042 RMK A01 T00081033  RH  074%=      5-min Rain = 0
KHA2 150416Z 23007KT 01/M03 A3042 RMK A01 T00091033  RH  074%=      5-min Rain = 0
KHA2 150417Z 23008KT 01/M03 A3042 RMK A01 T00081033  RH  074%=      5-min Rain = 0
KHA2 150418Z 23008KT 01/M03 A3042 RMK A01 T00081034  RH  074%=      5-min Rain = 0
KHA2 150419Z 23008KT 01/M03 A3042 RMK A01 T00071034  RH  074%=      5-min Rain = 0
KHA2 150420Z 23008KT 01/M03 A3042 RMK A01 T00071034  RH  074%=      5-min Rain = 0
KHA2 150421Z 23008KT 01/M03 A3042 RMK A01 T00071034  RH  074%=      5-min Rain = 0
KHA2 150422Z 23008KT 01/M03 A3042 RMK A01 T00071034  RH  074%=      5-min Rain = 0
KHA2 150423Z 23008KT 01/M03 A3042 RMK A01 T00071034  RH  074%=      5-min Rain = 0
KHA2 150424Z 23008KT 01/M03 A3042 RMK A01 T00071034  RH  074%=      5-min Rain = 0
KHA2 150425Z 23009KT 01/M03 A3042 RMK A01 T00071034  RH  074%=      5-min Rain = 0
KHA2 150426Z 23009KT 01/M03 A3042 RMK A01 T00071034  RH  074%=      5-min Rain = 0
KHA2 150427Z 22009KT 01/M03 A3042 RMK A01 T00071034  RH  074%=      5-min Rain = 0
KHA2 150428Z 22009KT 01/M03 A3042 RMK A01 T00071034  RH  074%=      5-min Rain = 0
KHA2 150429Z 22008KT 01/M04 A3042 RMK A01 T00061035  RH  074%=      5-min Rain = 0
KHA2 150430Z 22008KT 01/M04 A3042 RMK A01 T00051036  RH  074%=      5-min Rain = 0
KHA2 150431Z 22008KT 00/M04 A3042 RMK A01 T00041037  RH  074%=      5-min Rain = 0
KHA2 150432Z 22008KT 00/M04 A3042 RMK A01 T00031037  RH  075%=      5-min Rain = 0
KHA2 150433Z 22008KT 00/M04 A3042 RMK A01 T00021038  RH  075%=      5-min Rain = 0
KHA2 150434Z 22008KT 00/M04 A3042 RMK A01 T00011038  RH  075%=      5-min Rain = 0
KHA2 150435Z 22008KT 00/04 A3042 RMK A01 T00-00-38  RH  076%=      5-min Rain = 0
KHA2 150436Z 22008KT 00/04 A3042 RMK A01 T00-00-37  RH  076%=      5-min Rain = 0
KHA2 150437Z 23007KT M00/M04 A3042 RMK A01 T10011038  RH  076%=      5-min Rain = 0
KHA2 150438Z 23007KT M00/M04 A3042 RMK A01 T10011038  RH  076%=      5-min Rain = 0
KHA2 150439Z 23007KT M00/M04 A3042 RMK A01 T10011038  RH  076%=      5-min Rain = 0
KHA2 150440Z 23007KT M00/M04 A3042 RMK A01 T10011038  RH  076%=      5-min Rain = 0
KHA2 150441Z 23008KT M00/M04 A3042 RMK A01 T10011037  RH  076%=      5-min Rain = 0
KHA2 150442Z 23008KT M00/M04 A3042 RMK A01 T10011037  RH  076%=      5-min Rain = 0
KHA2 150443Z 22007KT M00/M04 A3042 RMK A01 T10011037  RH  076%=      5-min Rain = 0
KHA2 150444Z 22007KT M00/M04 A3042 RMK A01 T10011037  RH  076%=      5-min Rain = 0
KHA2 150445Z 23007KT M00/M04 A3042 RMK A01 T10021038  RH  076%=      5-min Rain = 0
KHA2 150446Z 22007KT M00/M04 A3042 RMK A01 T10031039  RH  077%=      5-min Rain = 0
KHA2 150447Z 23006KT M00/M04 A3042 RMK A01 T10031038  RH  077%=      5-min Rain = 0
KHA2 150448Z 23007KT M00/M04 A3042 RMK A01 T10031038  RH  077%=      5-min Rain = 0
KHA2 150449Z 23007KT M00/M04 A3042 RMK A01 T10021037  RH  077%=      5-min Rain = 0
KHA2 150450Z 23007KT M00/M04 A3042 RMK A01 T10021037  RH  077%=      5-min Rain = 0
KHA2 150451Z 23008KT M00/M04 A3042 RMK A01 T10021037  RH  077%=      5-min Rain = 0
KHA2 150452Z 23008KT M00/M04 A3042 RMK A01 T10021037  RH  077%=      5-min Rain = 0
KHA2 150453Z 22008KT M00/M04 A3042 RMK A01 T10021037  RH  077%=      5-min Rain = 0
KHA2 150454Z 22008KT M00/M04 A3042 RMK A01 T10011037  RH  077%=      5-min Rain = 0
KHA2 150455Z 22007KT M00/M04 A3042 RMK A01 T10011037  RH  077%=      5-min Rain = 0
KHA2 150456Z 22007KT M00/M04 A3042 RMK A01 T10011036  RH  077%=      5-min Rain = 0
KHA2 150457Z 22006KT M00/M04 A3042 RMK A01 T10011037  RH  077%=      5-min Rain = 0
KHA2 150458Z 22006KT M00/M04 A3042 RMK A01 T10011037  RH  077%=      5-min Rain = 0
KHA2 150459Z 22006KT M00/M04 A3042 RMK A01 T10011037  RH  077%=      5-min Rain = 0
KHA2 150500Z 22006KT M00/M04 A3042 RMK A01 T10021038  RH  077%=      5-min Rain = 0
KHA2 150501Z 22006KT M00/M04 A3042 RMK A01 T10021038  RH  077%=      5-min Rain = 0
KHA2 150502Z 22007KT M00/M04 A3042 RMK A01 T10031038  RH  077%=      5-min Rain = 0
KHA2 150503Z 23007KT M00/M04 A3042 RMK A01 T10031038  RH  077%=      5-min Rain = 0
KHA2 150504Z 23007KT M00/M04 A3042 RMK A01 T10031038  RH  077%=      5-min Rain = 0
KHA2 150505Z 23008KT M00/M04 A3042 RMK A01 T10031038  RH  077%=      5-min Rain = 0
KHA2 150506Z 24008KT M00/M04 A3042 RMK A01 T10021037  RH  077%=      5-min Rain = 0
KHA2 150507Z 23008KT M00/M04 A3042 RMK A01 T10011036  RH  077%=      5-min Rain = 0
KHA2 150508Z 23008KT 00/04 A3042 RMK A01 T00000-35  RH  077%=      5-min Rain = 0
KHA2 150509Z 23008KT 00/M04 A3042 RMK A01 T00011035  RH  077%=      5-min Rain = 0
KHA2 150510Z 23007KT 00/M04 A3042 RMK A01 T00011035  RH  076%=      5-min Rain = 0
KHA2 150511Z 23007KT 00/M04 A3042 RMK A01 T00011035  RH  076%=      5-min Rain = 0
KHA2 150512Z 23007KT 00/M04 A3042 RMK A01 T00021035  RH  076%=      5-min Rain = 0
KHA2 150513Z 23008KT 00/M04 A3042 RMK A01 T00021035  RH  076%=      5-min Rain = 0
KHA2 150514Z 23008KT 00/M04 A3042 RMK A01 T00021035  RH  076%=      5-min Rain = 0
KHA2 150515Z 23008KT 00/M04 A3042 RMK A01 T00011036  RH  076%=      5-min Rain = 0
KHA2 150516Z 23007KT 00/M04 A3042 RMK A01 T00011037  RH  076%=      5-min Rain = 0
KHA2 150517Z 23007KT 00/04 A3042 RMK A01 T00000-37  RH  076%=      5-min Rain = 0
KHA2 150518Z 23007KT M00/M04 A3042 RMK A01 T10011038  RH  076%=      5-min Rain = 0
KHA2 150519Z 23007KT M00/M04 A3042 RMK A01 T10021038  RH  076%=      5-min Rain = 0
KHA2 150520Z 23007KT M00/M04 A3042 RMK A01 T10031038  RH  077%=      5-min Rain = 0
KHA2 150521Z 22007KT M00/M04 A3042 RMK A01 T10031039  RH  077%=      5-min Rain = 0
KHA2 150522Z 22007KT M00/M04 A3042 RMK A01 T10041039  RH  077%=      5-min Rain = 0
KHA2 150523Z 22007KT M01/M04 A3042 RMK A01 T10051039  RH  078%=      5-min Rain = 0
KHA2 150524Z 23007KT M01/M04 A3042 RMK A01 T10051039  RH  078%=      5-min Rain = 0
KHA2 150525Z 23007KT M01/M04 A3042 RMK A01 T10051039  RH  078%=      5-min Rain = 0
KHA2 150526Z 23007KT M01/M04 A3042 RMK A01 T10051038  RH  078%=      5-min Rain = 0
KHA2 150527Z 23007KT M01/M04 A3042 RMK A01 T10051038  RH  078%=      5-min Rain = 0
KHA2 150528Z 23007KT M01/M04 A3042 RMK A01 T10051038  RH  078%=      5-min Rain = 0
KHA2 150529Z 23007KT M01/M04 A3042 RMK A01 T10051038  RH  078%=      5-min Rain = 0
KHA2 150530Z 23007KT M01/M04 A3042 RMK A01 T10051038  RH  078%=      5-min Rain = 0
KHA2 150531Z 23007KT M00/M04 A3042 RMK A01 T10041038  RH  078%=      5-min Rain = 0
KHA2 150532Z 23007KT M00/M04 A3042 RMK A01 T10041038  RH  078%=      5-min Rain = 0
KHA2 150533Z 23007KT M01/M04 A3042 RMK A01 T10051038  RH  078%=      5-min Rain = 0
KHA2 150534Z 23007KT M01/M04 A3042 RMK A01 T10051038  RH  078%=      5-min Rain = 0
KHA2 150535Z 23007KT M01/M04 A3042 RMK A01 T10051038  RH  078%=      5-min Rain = 0
KHA2 150536Z 23007KT M01/M04 A3042 RMK A01 T10051038  RH  078%=      5-min Rain = 0
KHA2 150537Z 23007KT M01/M04 A3042 RMK A01 T10051038  RH  078%=      5-min Rain = 0
KHA2 150538Z 23007KT M01/M04 A3042 RMK A01 T10061039  RH  078%=      5-min Rain = 0
KHA2 150539Z 23007KT M01/M04 A3042 RMK A01 T10061039  RH  078%=      5-min Rain = 0
KHA2 150540Z 23007KT M01/M04 A3042 RMK A01 T10061039  RH  079%=      5-min Rain = 0
KHA2 150541Z 23007KT M01/M04 A3042 RMK A01 T10071039  RH  079%=      5-min Rain = 0
KHA2 150542Z 23007KT M01/M04 A3042 RMK A01 T10071039  RH  079%=      5-min Rain = 0
KHA2 150543Z 23007KT M01/M04 A3042 RMK A01 T10081040  RH  079%=      5-min Rain = 0
KHA2 150544Z 23007KT M01/M04 A3042 RMK A01 T10071039  RH  079%=      5-min Rain = 0
KHA2 150545Z 23006KT M01/M04 A3042 RMK A01 T10081039  RH  079%=      5-min Rain = 0
KHA2 150546Z 23006KT M01/M04 A3042 RMK A01 T10081039  RH  079%=      5-min Rain = 0
KHA2 150547Z 23006KT M01/M04 A3042 RMK A01 T10081040  RH  079%=      5-min Rain = 0
KHA2 150548Z 23006KT M01/M04 A3042 RMK A01 T10081040  RH  079%=      5-min Rain = 0
KHA2 150549Z 23006KT M01/M04 A3042 RMK A01 T10091040  RH  079%=      5-min Rain = 0
KHA2 150550Z 22006KT M01/M04 A3042 RMK A01 T10091041  RH  079%=      5-min Rain = 0
KHA2 150551Z 23006KT M01/M04 A3042 RMK A01 T10091040  RH  079%=      5-min Rain = 0
KHA2 150552Z 23007KT M01/M04 A3042 RMK A01 T10091041  RH  079%=      5-min Rain = 0
KHA2 150553Z 23007KT M01/M04 A3042 RMK A01 T10101041  RH  079%=      5-min Rain = 0
KHA2 150554Z 23007KT M01/M04 A3042 RMK A01 T10111042  RH  079%=      5-min Rain = 0
KHA2 150555Z 23007KT M01/M04 A3042 RMK A01 T10111041  RH  080%=      5-min Rain = 0
KHA2 150556Z 23007KT M01/M04 A3042 RMK A01 T10111041  RH  080%=      5-min Rain = 0
KHA2 150557Z 23007KT M01/M04 A3042 RMK A01 T10111041  RH  080%=      5-min Rain = 0
KHA2 150558Z 23007KT M01/M04 A3042 RMK A01 T10111041  RH  080%=      5-min Rain = 0
KHA2 150559Z 24007KT M01/M04 A3042 RMK A01 T10111041  RH  080%=      5-min Rain = 0

Page generated in 0.0773 seconds.